Time,TemperatureF,DewpointF,PressureIn,WindDirection,WindDirectionDegrees,WindSpeedMPH,WindSpeedGustMPH,Humidity,HourlyPrecipIn,Conditions,Clouds,dailyrainin,SoftwareType,DateUTC
2013-11-19 00:00:00,34.3,6.1,26.69,SW,216,0.0,0.0,30,0.00,CLR,,0.00,WeatherDisplay:10.37,2013-11-19 05:00:00,
2013-11-19 00:01:00,34.3,6.1,26.69,SW,216,0.0,0.0,30,0.00,CLR,,0.00,WeatherDisplay:10.37,2013-11-19 05:01:00,
2013-11-19 00:02:00,34.3,6.1,26.69,SW,216,0.0,0.0,30,0.00,CLR,,0.00,WeatherDisplay:10.37,2013-11-19 05:02:00,
2013-11-19 00:04:00,34.3,6.1,26.69,NW,314,0.0,0.0,30,0.00,CLR,,0.00,WeatherDisplay:10.37,2013-11-19 05:04:00,
2013-11-19 00:07:00,34.3,6.1,26.69,WNW,303,0.0,0.0,30,0.00,CLR,,0.00,WeatherDisplay:10.37,2013-11-19 05:07:00,
2013-11-19 00:09:00,34.3,6.1,26.69,WNW,303,0.0,0.0,30,0.00,CLR,,0.00,WeatherDisplay:10.37,2013-11-19 05:09:00,
2013-11-19 00:10:00,34.3,6.1,0.00,West,280,0.0,0.0,30,0.00,CLR,,0.00,WeatherDisplay:10.37,2013-11-19 05:10:00,
2013-11-19 00:11:00,34.3,6.1,26.69,WNW,289,0.0,0.0,30,0.00,CLR,,0.00,WeatherDisplay:10.37,2013-11-19 05:11:00,
2013-11-19 00:12:00,34.3,6.1,26.69,NW,312,0.0,0.0,30,0.00,CLR,,0.00,WeatherDisplay:10.37,2013-11-19 05:12:00,
2013-11-19 00:16:00,34.3,6.1,26.69,West,277,0.0,2.2,30,0.00,CLR,,0.00,WeatherDisplay:10.37,2013-11-19 05:16:00,
2013-11-19 00:18:00,34.3,6.8,26.69,West,277,0.0,0.0,31,0.00,CLR,,0.00,WeatherDisplay:10.37,2013-11-19 05:18:00,
2013-11-19 00:19:00,34.3,6.1,26.69,West,277,0.0,0.0,30,0.00,CLR,,0.00,WeatherDisplay:10.37,2013-11-19 05:19:00,
2013-11-19 00:20:00,34.3,6.1,26.69,West,260,3.1,3.1,30,0.00,CLR,,0.00,WeatherDisplay:10.37,2013-11-19 05:20:00,
2013-11-19 00:21:00,34.3,6.1,26.69,WNW,299,3.5,0.0,30,0.00,CLR,,0.00,WeatherDisplay:10.37,2013-11-19 05:21:00,
2013-11-19 00:23:00,34.3,6.1,26.69,WNW,299,2.3,0.0,30,0.00,CLR,,0.00,WeatherDisplay:10.37,2013-11-19 05:23:00,
2013-11-19 00:24:00,34.3,6.1,26.69,WNW,299,2.3,0.0,30,0.00,CLR,,0.00,WeatherDisplay:10.37,2013-11-19 05:24:00,
2013-11-19 00:25:00,34.3,6.1,26.69,WNW,299,2.7,0.0,30,0.00,CLR,,0.00,WeatherDisplay:10.37,2013-11-19 05:25:00,
2013-11-19 00:26:00,34.3,6.1,26.69,WNW,299,2.3,0.0,30,0.00,CLR,,0.00,WeatherDisplay:10.37,2013-11-19 05:26:00,
2013-11-19 00:27:00,34.3,6.1,26.69,WNW,299,2.3,0.0,30,0.00,CLR,,0.00,WeatherDisplay:10.37,2013-11-19 05:27:00,
2013-11-19 00:28:00,34.3,6.1,26.69,WNW,299,2.7,0.0,30,0.00,CLR,,0.00,WeatherDisplay:10.37,2013-11-19 05:28:00,
2013-11-19 00:30:00,34.3,6.1,26.69,WNW,299,2.3,0.0,30,0.00,CLR,,0.00,WeatherDisplay:10.37,2013-11-19 05:30:00,
2013-11-19 00:31:00,34.3,6.1,26.69,WNW,299,2.3,0.0,30,0.00,CLR,,0.00,WeatherDisplay:10.37,2013-11-19 05:31:00,
2013-11-19 00:32:00,34.3,6.1,26.69,NW,324,3.5,0.0,30,0.00,CLR,,0.00,WeatherDisplay:10.37,2013-11-19 05:32:00,
2013-11-19 00:33:00,34.3,6.1,26.69,NW,324,3.5,0.0,30,0.00,CLR,,0.00,WeatherDisplay:10.37,2013-11-19 05:33:00,
2013-11-19 00:35:00,34.3,6.1,26.69,WNW,301,3.5,0.0,30,0.00,CLR,,0.00,WeatherDisplay:10.37,2013-11-19 05:35:00,
2013-11-19 00:37:00,34.3,6.1,26.69,NNW,336,0.0,0.0,30,0.00,CLR,,0.00,WeatherDisplay:10.37,2013-11-19 05:37:00,
2013-11-19 00:38:00,34.3,6.1,26.69,NNW,336,0.0,0.0,30,0.00,CLR,,0.00,WeatherDisplay:10.37,2013-11-19 05:38:00,
2013-11-19 00:39:00,34.5,6.2,26.69,WSW,242,0.0,0.0,30,0.00,CLR,,0.00,WeatherDisplay:10.37,2013-11-19 05:39:00,
2013-11-19 00:42:00,34.5,6.2,26.69,WNW,295,0.0,0.0,30,0.00,CLR,,0.00,WeatherDisplay:10.37,2013-11-19 05:42:00,
2013-11-19 00:44:00,34.5,6.2,26.69,WNW,295,0.0,0.0,30,0.00,CLR,,0.00,WeatherDisplay:10.37,2013-11-19 05:44:00,
2013-11-19 00:45:00,34.5,6.2,26.69,West,273,4.9,0.0,30,0.00,CLR,,0.00,WeatherDisplay:10.37,2013-11-19 05:45:00,
2013-11-19 00:49:00,34.5,6.2,26.69,WNW,285,0.0,0.0,30,0.00,CLR,,0.00,WeatherDisplay:10.37,2013-11-19 05:49:00,
2013-11-19 00:50:00,34.5,6.2,26.69,NNW,336,0.0,0.0,30,0.00,CLR,,0.00,WeatherDisplay:10.37,2013-11-19 05:50:00,
2013-11-19 00:51:00,34.5,6.2,26.69,WSW,257,0.0,0.0,30,0.00,CLR,,0.00,WeatherDisplay:10.37,2013-11-19 05:51:00,
2013-11-19 00:52:00,34.5,6.2,26.69,NW,310,2.7,3.1,30,0.00,CLR,,0.00,WeatherDisplay:10.37,2013-11-19 05:52:00,
2013-11-19 00:54:00,34.5,6.2,26.69,NW,310,2.3,3.1,30,0.00,CLR,,0.00,WeatherDisplay:10.37,2013-11-19 05:54:00,
2013-11-19 00:55:00,34.5,6.2,0.00,WNW,296,2.0,3.0,30,0.00,CLR,,0.00,WeatherDisplay:10.37,2013-11-19 05:55:00,
2013-11-19 00:56:00,34.5,6.2,26.69,WNW,300,0.0,0.0,30,0.00,CLR,,0.00,WeatherDisplay:10.37,2013-11-19 05:56:00,
2013-11-19 00:57:00,34.5,6.2,26.69,NNW,328,0.0,0.0,30,0.00,CLR,,0.00,WeatherDisplay:10.37,2013-11-19 05:57:00,
2013-11-19 01:00:00,34.5,6.9,0.00,NW,307,0.0,0.0,31,0.00,CLR,,0.00,WeatherDisplay:10.37,2013-11-19 06:00:00,
2013-11-19 01:02:00,34.5,6.2,26.69,NNW,328,0.0,0.0,30,0.00,CLR,,0.00,WeatherDisplay:10.37,2013-11-19 06:02:00,
2013-11-19 01:03:00,34.5,6.2,26.69,NNW,328,0.0,0.0,30,0.00,CLR,,0.00,WeatherDisplay:10.37,2013-11-19 06:03:00,
2013-11-19 01:05:00,34.5,6.2,26.69,NNW,328,0.0,0.0,30,0.00,CLR,,0.00,WeatherDisplay:10.37,2013-11-19 06:05:00,
2013-11-19 01:06:00,34.5,6.2,26.69,NNW,328,0.0,0.0,30,0.00,CLR,,0.00,WeatherDisplay:10.37,2013-11-19 06:06:00,
2013-11-19 01:07:00,34.5,6.2,26.69,NNW,328,0.0,0.0,30,0.00,CLR,,0.00,WeatherDisplay:10.37,2013-11-19 06:07:00,
2013-11-19 01:09:00,34.5,6.2,26.69,NNW,328,0.0,0.0,30,0.00,CLR,,0.00,WeatherDisplay:10.37,2013-11-19 06:09:00,
2013-11-19 01:10:00,34.5,6.2,0.00,NNW,328,0.0,0.0,30,0.00,CLR,,0.00,WeatherDisplay:10.37,2013-11-19 06:10:00,
2013-11-19 01:11:00,34.5,6.2,26.69,NNW,328,0.0,0.0,30,0.00,CLR,,0.00,WeatherDisplay:10.37,2013-11-19 06:11:00,
2013-11-19 01:12:00,34.5,6.2,26.69,NNW,328,0.0,0.0,30,0.00,CLR,,0.00,WeatherDisplay:10.37,2013-11-19 06:12:00,
2013-11-19 01:13:00,34.5,6.2,26.69,NNW,328,0.0,0.0,30,0.00,CLR,,0.00,WeatherDisplay:10.37,2013-11-19 06:13:00,
2013-11-19 01:15:00,34.5,6.2,0.00,NNW,328,0.0,0.0,30,0.00,CLR,,0.00,WeatherDisplay:10.37,2013-11-19 06:15:00,
2013-11-19 01:16:00,34.5,6.2,26.69,NNW,328,0.0,0.0,30,0.00,CLR,,0.00,WeatherDisplay:10.37,2013-11-19 06:16:00,
2013-11-19 01:17:00,34.5,6.2,26.69,NNW,328,0.0,0.0,30,0.00,CLR,,0.00,WeatherDisplay:10.37,2013-11-19 06:17:00,
2013-11-19 01:21:00,34.5,6.2,26.69,NW,307,0.0,0.0,30,0.00,CLR,,0.00,WeatherDisplay:10.37,2013-11-19 06:21:00,
2013-11-19 01:22:00,34.5,6.2,26.69,NW,307,0.0,0.0,30,0.00,CLR,,0.00,WeatherDisplay:10.37,2013-11-19 06:22:00,
2013-11-19 01:23:00,34.5,6.2,26.69,NW,318,0.0,2.2,30,0.00,CLR,,0.00,WeatherDisplay:10.37,2013-11-19 06:23:00,
2013-11-19 01:24:00,34.5,6.2,26.69,NW,320,0.0,2.2,30,0.00,CLR,,0.00,WeatherDisplay:10.37,2013-11-19 06:24:00,
2013-11-19 01:26:00,34.5,6.2,26.69,NW,320,0.0,2.2,30,0.00,CLR,,0.00,WeatherDisplay:10.37,2013-11-19 06:26:00,
2013-11-19 01:27:00,34.5,6.2,26.69,NW,320,0.0,2.2,30,0.00,CLR,,0.00,WeatherDisplay:10.37,2013-11-19 06:27:00,
2013-11-19 01:30:00,34.5,6.2,26.69,WNW,284,0.0,2.2,30,0.00,CLR,,0.00,WeatherDisplay:10.37,2013-11-19 06:30:00,
2013-11-19 01:32:00,34.5,6.2,26.69,West,273,2.3,0.0,30,0.00,CLR,,0.00,WeatherDisplay:10.37,2013-11-19 06:32:00,
2013-11-19 01:33:00,34.5,6.9,26.69,West,273,2.3,0.0,31,0.00,CLR,,0.00,WeatherDisplay:10.37,2013-11-19 06:33:00,
2013-11-19 01:34:00,34.5,6.2,26.69,West,273,0.0,0.0,30,0.00,CLR,,0.00,WeatherDisplay:10.37,2013-11-19 06:34:00,
2013-11-19 01:39:00,34.5,6.2,26.69,NW,320,3.5,0.0,30,0.00,CLR,,0.00,WeatherDisplay:10.37,2013-11-19 06:39:00,
2013-11-19 01:40:00,34.5,6.2,26.69,NW,320,3.5,0.0,30,0.00,CLR,,0.00,WeatherDisplay:10.37,2013-11-19 06:40:00,
2013-11-19 01:41:00,34.5,6.2,26.69,West,276,3.5,0.0,30,0.00,CLR,,0.00,WeatherDisplay:10.37,2013-11-19 06:41:00,
2013-11-19 01:43:00,34.5,6.2,26.69,West,276,0.0,0.0,30,0.00,CLR,,0.00,WeatherDisplay:10.37,2013-11-19 06:43:00,
2013-11-19 01:44:00,34.5,6.2,26.69,West,276,0.0,0.0,30,0.00,CLR,,0.00,WeatherDisplay:10.37,2013-11-19 06:44:00,
2013-11-19 01:45:00,34.5,6.2,26.69,West,276,0.0,0.0,30,0.00,CLR,,0.00,WeatherDisplay:10.37,2013-11-19 06:45:00,
2013-11-19 01:46:00,34.5,6.2,26.69,West,276,0.0,0.0,30,0.00,CLR,,0.00,WeatherDisplay:10.37,2013-11-19 06:46:00,
2013-11-19 01:48:00,34.5,6.2,26.69,West,276,0.0,0.0,30,0.00,CLR,,0.00,WeatherDisplay:10.37,2013-11-19 06:48:00,
2013-11-19 01:49:00,34.5,6.2,26.69,West,276,0.0,0.0,30,0.00,CLR,,0.00,WeatherDisplay:10.37,2013-11-19 06:49:00,
2013-11-19 01:52:00,34.5,6.2,26.69,WNW,299,0.0,0.0,30,0.00,CLR,,0.00,WeatherDisplay:10.37,2013-11-19 06:52:00,
2013-11-19 01:54:00,34.5,6.2,26.69,WNW,299,0.0,0.0,30,0.00,CLR,,0.00,WeatherDisplay:10.37,2013-11-19 06:54:00,
2013-11-19 01:55:00,34.5,6.2,0.00,WNW,289,0.0,0.0,30,0.00,CLR,,0.00,WeatherDisplay:10.37,2013-11-19 06:55:00,
2013-11-19 01:57:00,34.5,6.9,26.69,WNW,299,0.0,0.0,31,0.00,CLR,,0.00,WeatherDisplay:10.37,2013-11-19 06:57:00,
2013-11-19 01:58:00,34.5,6.9,26.69,WNW,299,0.0,0.0,31,0.00,CLR,,0.00,WeatherDisplay:10.37,2013-11-19 06:58:00,
2013-11-19 01:59:00,34.5,6.9,26.69,NW,311,0.0,0.0,31,0.00,CLR,,0.00,WeatherDisplay:10.37,2013-11-19 06:59:00,
2013-11-19 02:00:00,34.5,6.9,0.00,WNW,302,0.0,0.0,31,0.00,CLR,,0.00,WeatherDisplay:10.37,2013-11-19 07:00:00,
2013-11-19 02:02:00,34.5,6.9,26.69,NW,311,0.0,0.0,31,0.00,CLR,,0.00,WeatherDisplay:10.37,2013-11-19 07:02:00,
2013-11-19 02:03:00,34.5,6.9,26.69,NW,311,0.0,0.0,31,0.00,CLR,,0.00,WeatherDisplay:10.37,2013-11-19 07:03:00,
2013-11-19 02:04:00,34.5,6.9,26.69,NW,311,0.0,0.0,31,0.00,CLR,,0.00,WeatherDisplay:10.37,2013-11-19 07:04:00,
2013-11-19 02:05:00,34.5,6.9,0.00,NW,308,0.0,0.0,31,0.00,CLR,,0.00,WeatherDisplay:10.37,2013-11-19 07:05:00,
2013-11-19 02:07:00,34.5,6.9,26.69,NW,311,0.0,0.0,31,0.00,CLR,,0.00,WeatherDisplay:10.37,2013-11-19 07:07:00,
2013-11-19 02:10:00,34.5,6.9,0.00,NW,308,0.0,0.0,31,0.00,CLR,,0.00,WeatherDisplay:10.37,2013-11-19 07:10:00,
2013-11-19 02:12:00,34.5,6.9,26.69,NW,315,0.0,0.0,31,0.00,CLR,,0.00,WeatherDisplay:10.37,2013-11-19 07:12:00,
2013-11-19 02:13:00,34.5,6.9,26.69,NW,315,0.0,0.0,31,0.00,CLR,,0.00,WeatherDisplay:10.37,2013-11-19 07:13:00,
2013-11-19 02:14:00,34.5,6.2,26.69,NW,315,0.0,0.0,30,0.00,CLR,,0.00,WeatherDisplay:10.37,2013-11-19 07:14:00,
2013-11-19 02:15:00,34.5,6.9,26.69,NW,315,0.0,0.0,31,0.00,CLR,,0.00,WeatherDisplay:10.37,2013-11-19 07:15:00,
2013-11-19 02:18:00,34.5,6.9,26.69,NW,315,0.0,0.0,31,0.00,CLR,,0.00,WeatherDisplay:10.37,2013-11-19 07:18:00,
2013-11-19 02:19:00,34.5,6.9,26.69,NW,315,0.0,0.0,31,0.00,CLR,,0.00,WeatherDisplay:10.37,2013-11-19 07:19:00,
2013-11-19 02:20:00,34.5,6.9,0.00,NW,315,0.0,0.0,31,0.00,CLR,,0.00,WeatherDisplay:10.37,2013-11-19 07:20:00,
2013-11-19 02:22:00,34.5,6.9,26.69,NW,315,0.0,0.0,31,0.00,CLR,,0.00,WeatherDisplay:10.37,2013-11-19 07:22:00,
2013-11-19 02:24:00,34.5,6.2,26.69,NW,315,0.0,0.0,30,0.00,CLR,,0.00,WeatherDisplay:10.37,2013-11-19 07:24:00,
2013-11-19 02:25:00,34.5,6.2,0.00,NW,315,0.0,0.0,30,0.00,CLR,,0.00,WeatherDisplay:10.37,2013-11-19 07:25:00,
2013-11-19 02:26:00,34.5,6.9,26.69,NW,316,0.0,0.0,31,0.00,CLR,,0.00,WeatherDisplay:10.37,2013-11-19 07:26:00,
2013-11-19 02:27:00,34.5,6.2,26.69,NW,316,0.0,0.0,30,0.00,CLR,,0.00,WeatherDisplay:10.37,2013-11-19 07:27:00,
2013-11-19 02:29:00,34.5,6.9,26.69,NW,316,0.0,0.0,31,0.00,CLR,,0.00,WeatherDisplay:10.37,2013-11-19 07:29:00,
2013-11-19 02:30:00,34.5,6.9,0.00,NW,316,0.0,0.0,31,0.00,CLR,,0.00,WeatherDisplay:10.37,2013-11-19 07:30:00,
2013-11-19 02:31:00,34.5,6.9,26.69,NW,316,0.0,0.0,31,0.00,CLR,,0.00,WeatherDisplay:10.37,2013-11-19 07:31:00,
2013-11-19 02:35:00,34.5,6.2,0.00,NW,316,0.0,0.0,30,0.00,CLR,,0.00,WeatherDisplay:10.37,2013-11-19 07:35:00,
2013-11-19 02:36:00,34.5,6.2,26.69,NW,316,0.0,0.0,30,0.00,CLR,,0.00,WeatherDisplay:10.37,2013-11-19 07:36:00,
2013-11-19 02:39:00,34.5,6.2,26.69,NW,316,0.0,0.0,30,0.00,CLR,,0.00,WeatherDisplay:10.37,2013-11-19 07:39:00,
2013-11-19 02:40:00,34.5,6.9,26.69,NW,325,0.0,0.0,31,0.00,CLR,,0.00,WeatherDisplay:10.37,2013-11-19 07:40:00,
2013-11-19 02:41:00,34.5,6.9,26.69,NW,325,0.0,0.0,31,0.00,CLR,,0.00,WeatherDisplay:10.37,2013-11-19 07:41:00,
2013-11-19 02:42:00,34.5,6.9,26.69,NW,316,0.0,0.0,31,0.00,CLR,,0.00,WeatherDisplay:10.37,2013-11-19 07:42:00,
2013-11-19 02:45:00,34.5,6.2,26.69,NW,320,0.0,2.7,30,0.00,CLR,,0.00,WeatherDisplay:10.37,2013-11-19 07:45:00,
2013-11-19 02:46:00,34.5,6.2,26.69,NW,320,2.3,2.7,30,0.00,CLR,,0.00,WeatherDisplay:10.37,2013-11-19 07:46:00,
2013-11-19 02:47:00,34.5,6.2,26.69,NW,320,2.3,0.0,30,0.00,CLR,,0.00,WeatherDisplay:10.37,2013-11-19 07:47:00,
2013-11-19 02:49:00,34.5,6.2,26.69,NW,320,0.0,0.0,30,0.00,CLR,,0.00,WeatherDisplay:10.37,2013-11-19 07:49:00,
2013-11-19 02:51:00,34.5,6.2,26.69,NW,320,0.0,0.0,30,0.00,CLR,,0.00,WeatherDisplay:10.37,2013-11-19 07:51:00,
2013-11-19 02:52:00,34.5,6.2,26.69,NW,320,0.0,0.0,30,0.00,CLR,,0.00,WeatherDisplay:10.37,2013-11-19 07:52:00,
2013-11-19 02:53:00,34.5,6.2,26.69,NW,320,0.0,0.0,30,0.00,CLR,,0.00,WeatherDisplay:10.37,2013-11-19 07:53:00,
2013-11-19 02:54:00,34.5,6.2,26.69,NW,310,2.3,2.7,30,0.00,CLR,,0.00,WeatherDisplay:10.37,2013-11-19 07:54:00,
2013-11-19 02:57:00,34.5,6.2,26.69,NNW,327,0.0,0.0,30,0.00,CLR,,0.00,WeatherDisplay:10.37,2013-11-19 07:57:00,
2013-11-19 02:58:00,34.5,6.2,26.69,NNW,327,0.0,0.0,30,0.00,CLR,,0.00,WeatherDisplay:10.37,2013-11-19 07:58:00,
2013-11-19 02:59:00,34.5,6.2,26.69,NNW,327,0.0,0.0,30,0.00,CLR,,0.00,WeatherDisplay:10.37,2013-11-19 07:59:00,
2013-11-19 03:00:00,34.5,6.2,0.00,NW,318,0.0,0.0,30,0.00,CLR,,0.00,WeatherDisplay:10.37,2013-11-19 08:00:00,
2013-11-19 03:01:00,34.5,6.2,26.69,NW,309,0.0,0.0,30,0.00,CLR,,0.00,WeatherDisplay:10.37,2013-11-19 08:01:00,
2013-11-19 03:04:00,34.5,6.2,26.69,NW,316,0.0,0.0,30,0.00,CLR,,0.00,WeatherDisplay:10.37,2013-11-19 08:04:00,
2013-11-19 03:05:00,34.5,6.9,26.69,NW,316,0.0,0.0,31,0.00,CLR,,0.00,WeatherDisplay:10.37,2013-11-19 08:05:00,
2013-11-19 03:06:00,34.5,6.2,26.69,NW,316,0.0,0.0,30,0.00,CLR,,0.00,WeatherDisplay:10.37,2013-11-19 08:06:00,
2013-11-19 03:08:00,34.5,6.2,26.69,NW,316,0.0,0.0,30,0.00,CLR,,0.00,WeatherDisplay:10.37,2013-11-19 08:08:00,
2013-11-19 03:09:00,34.5,6.2,26.69,NW,316,0.0,0.0,30,0.00,CLR,,0.00,WeatherDisplay:10.37,2013-11-19 08:09:00,
2013-11-19 03:10:00,34.5,6.2,0.00,NW,315,0.0,0.0,30,0.00,CLR,,0.00,WeatherDisplay:10.37,2013-11-19 08:10:00,
2013-11-19 03:12:00,34.5,6.2,26.69,NW,316,0.0,0.0,30,0.00,CLR,,0.00,WeatherDisplay:10.37,2013-11-19 08:12:00,
2013-11-19 03:13:00,34.5,6.2,26.69,NW,316,0.0,0.0,30,0.00,CLR,,0.00,WeatherDisplay:10.37,2013-11-19 08:13:00,
2013-11-19 03:15:00,34.5,6.9,0.00,NW,316,0.0,0.0,31,0.00,CLR,,0.00,WeatherDisplay:10.37,2013-11-19 08:15:00,
2013-11-19 03:16:00,34.5,6.2,26.69,NW,316,0.0,0.0,30,0.00,CLR,,0.00,WeatherDisplay:10.37,2013-11-19 08:16:00,
2013-11-19 03:19:00,34.3,6.1,26.69,NW,319,0.0,0.0,30,0.00,CLR,,0.00,WeatherDisplay:10.37,2013-11-19 08:19:00,
2013-11-19 03:20:00,34.4,6.1,0.00,NW,317,0.0,0.0,30,0.00,CLR,,0.00,WeatherDisplay:10.37,2013-11-19 08:20:00,
2013-11-19 03:21:00,34.3,6.1,26.69,WNW,303,0.0,0.0,30,0.00,CLR,,0.00,WeatherDisplay:10.37,2013-11-19 08:21:00,
2013-11-19 03:25:00,34.3,6.1,26.69,WNW,303,0.0,0.0,30,0.00,CLR,,0.00,WeatherDisplay:10.37,2013-11-19 08:25:00,
2013-11-19 03:28:00,34.3,6.1,26.69,WSW,240,2.3,0.0,30,0.00,CLR,,0.00,WeatherDisplay:10.37,2013-11-19 08:28:00,
2013-11-19 03:30:00,34.3,6.1,26.69,WSW,255,2.3,0.0,30,0.00,CLR,,0.00,WeatherDisplay:10.37,2013-11-19 08:30:00,
2013-11-19 03:31:00,34.3,6.1,26.69,WSW,255,0.0,0.0,30,0.00,CLR,,0.00,WeatherDisplay:10.37,2013-11-19 08:31:00,
2013-11-19 03:32:00,34.3,6.1,26.69,WSW,255,0.0,0.0,30,0.00,CLR,,0.00,WeatherDisplay:10.37,2013-11-19 08:32:00,
2013-11-19 03:35:00,34.3,6.1,26.69,WSW,255,0.0,0.0,30,0.00,CLR,,0.00,WeatherDisplay:10.37,2013-11-19 08:35:00,
2013-11-19 03:36:00,34.3,6.1,26.69,WSW,255,0.0,0.0,30,0.00,CLR,,0.00,WeatherDisplay:10.37,2013-11-19 08:36:00,
2013-11-19 03:37:00,34.3,6.1,26.69,WSW,255,0.0,0.0,30,0.00,CLR,,0.00,WeatherDisplay:10.37,2013-11-19 08:37:00,
2013-11-19 03:38:00,34.3,6.1,26.69,WSW,255,0.0,0.0,30,0.00,CLR,,0.00,WeatherDisplay:10.37,2013-11-19 08:38:00,
2013-11-19 03:39:00,34.3,6.1,26.69,WSW,255,0.0,0.0,30,0.00,CLR,,0.00,WeatherDisplay:10.37,2013-11-19 08:39:00,
2013-11-19 03:40:00,34.3,6.1,0.00,WSW,255,0.0,0.0,30,0.00,CLR,,0.00,WeatherDisplay:10.37,2013-11-19 08:40:00,
2013-11-19 03:41:00,34.3,6.1,26.69,WSW,255,0.0,0.0,30,0.00,CLR,,0.00,WeatherDisplay:10.37,2013-11-19 08:41:00,
2013-11-19 03:44:00,34.3,6.1,26.69,WSW,255,0.0,0.0,30,0.00,CLR,,0.00,WeatherDisplay:10.37,2013-11-19 08:44:00,
2013-11-19 03:45:00,34.3,6.1,0.00,WSW,255,0.0,0.0,30,0.00,CLR,,0.00,WeatherDisplay:10.37,2013-11-19 08:45:00,
2013-11-19 03:46:00,34.3,6.1,26.69,WSW,255,0.0,0.0,30,0.00,CLR,,0.00,WeatherDisplay:10.37,2013-11-19 08:46:00,
2013-11-19 03:47:00,34.3,6.1,26.69,WSW,255,0.0,0.0,30,0.00,CLR,,0.00,WeatherDisplay:10.37,2013-11-19 08:47:00,
2013-11-19 03:49:00,34.3,6.1,26.69,WSW,255,0.0,0.0,30,0.00,CLR,,0.00,WeatherDisplay:10.37,2013-11-19 08:49:00,
2013-11-19 03:50:00,34.3,6.1,26.69,WSW,255,0.0,0.0,30,0.00,CLR,,0.00,WeatherDisplay:10.37,2013-11-19 08:50:00,
2013-11-19 03:51:00,34.3,6.1,26.69,WSW,255,0.0,0.0,30,0.00,CLR,,0.00,WeatherDisplay:10.37,2013-11-19 08:51:00,
2013-11-19 03:54:00,34.3,6.1,26.69,WSW,255,0.0,0.0,30,0.00,CLR,,0.00,WeatherDisplay:10.37,2013-11-19 08:54:00,
2013-11-19 03:55:00,34.3,6.1,26.69,WSW,255,0.0,0.0,30,0.00,CLR,,0.00,WeatherDisplay:10.37,2013-11-19 08:55:00,
2013-11-19 03:56:00,34.3,6.1,26.69,WSW,255,0.0,0.0,30,0.00,CLR,,0.00,WeatherDisplay:10.37,2013-11-19 08:56:00,
2013-11-19 03:58:00,34.3,6.1,26.69,WSW,255,0.0,0.0,30,0.00,CLR,,0.00,WeatherDisplay:10.37,2013-11-19 08:58:00,
2013-11-19 04:00:00,34.3,6.0,0.00,WSW,255,0.0,0.0,30,0.00,CLR,,0.00,WeatherDisplay:10.37,2013-11-19 09:00:00,
2013-11-19 04:02:00,34.2,5.9,26.69,WSW,255,0.0,0.0,30,0.00,CLR,,0.00,WeatherDisplay:10.37,2013-11-19 09:02:00,
2013-11-19 04:05:00,34.2,5.9,0.00,West,271,0.0,0.0,30,0.00,CLR,,0.00,WeatherDisplay:10.37,2013-11-19 09:05:00,
2013-11-19 04:06:00,34.2,5.9,26.69,North,4,0.0,0.0,30,0.00,CLR,,0.00,WeatherDisplay:10.37,2013-11-19 09:06:00,
2013-11-19 04:07:00,34.2,5.9,26.69,North,4,0.0,0.0,30,0.00,CLR,,0.00,WeatherDisplay:10.37,2013-11-19 09:07:00,
2013-11-19 04:09:00,34.2,5.9,26.69,West,281,0.0,0.0,30,0.00,CLR,,0.00,WeatherDisplay:10.37,2013-11-19 09:09:00,
2013-11-19 04:10:00,34.2,5.9,26.69,West,281,0.0,0.0,30,0.00,CLR,,0.00,WeatherDisplay:10.37,2013-11-19 09:10:00,
2013-11-19 04:12:00,34.2,5.9,26.69,NW,308,3.5,0.0,30,0.00,CLR,,0.00,WeatherDisplay:10.37,2013-11-19 09:12:00,
2013-11-19 04:13:00,34.2,5.9,26.69,NW,308,3.5,0.0,30,0.00,CLR,,0.00,WeatherDisplay:10.37,2013-11-19 09:13:00,
2013-11-19 04:14:00,34.2,5.9,26.69,NW,308,3.5,0.0,30,0.00,CLR,,0.00,WeatherDisplay:10.37,2013-11-19 09:14:00,
2013-11-19 04:15:00,34.2,5.9,26.69,NW,308,3.5,0.0,30,0.00,CLR,,0.00,WeatherDisplay:10.37,2013-11-19 09:15:00,
2013-11-19 04:16:00,34.2,5.9,26.69,NW,308,3.5,0.0,30,0.00,CLR,,0.00,WeatherDisplay:10.37,2013-11-19 09:16:00,
2013-11-19 04:17:00,34.2,5.9,26.69,NW,308,3.5,0.0,30,0.00,CLR,,0.00,WeatherDisplay:10.37,2013-11-19 09:17:00,
2013-11-19 04:19:00,34.2,5.9,26.69,NW,308,3.5,0.0,30,0.00,CLR,,0.00,WeatherDisplay:10.37,2013-11-19 09:19:00,
2013-11-19 04:20:00,34.2,5.9,0.00,NW,308,0.0,3.0,30,0.00,CLR,,0.00,WeatherDisplay:10.37,2013-11-19 09:20:00,
2013-11-19 04:21:00,34.2,5.9,26.69,NW,308,3.5,0.0,30,0.00,CLR,,0.00,WeatherDisplay:10.37,2013-11-19 09:21:00,
2013-11-19 04:22:00,34.2,5.9,26.69,NW,308,3.5,0.0,30,0.00,CLR,,0.00,WeatherDisplay:10.37,2013-11-19 09:22:00,
2013-11-19 04:23:00,34.2,5.9,26.69,NW,308,3.5,0.0,30,0.00,CLR,,0.00,WeatherDisplay:10.37,2013-11-19 09:23:00,
2013-11-19 04:25:00,34.2,5.9,0.00,NW,308,0.0,3.0,30,0.00,CLR,,0.00,WeatherDisplay:10.37,2013-11-19 09:25:00,
2013-11-19 04:27:00,34.3,6.1,26.69,NW,308,3.5,0.0,30,0.00,CLR,,0.00,WeatherDisplay:10.37,2013-11-19 09:27:00,
2013-11-19 04:28:00,34.3,6.1,26.69,NW,308,3.5,0.0,30,0.00,CLR,,0.00,WeatherDisplay:10.37,2013-11-19 09:28:00,
2013-11-19 04:30:00,34.2,5.9,26.69,NW,308,3.5,0.0,30,0.00,CLR,,0.00,WeatherDisplay:10.37,2013-11-19 09:30:00,
2013-11-19 04:33:00,34.3,6.1,26.69,NW,308,3.5,0.0,30,0.00,CLR,,0.00,WeatherDisplay:10.37,2013-11-19 09:33:00,
2013-11-19 04:34:00,34.3,6.1,26.69,NW,308,3.5,0.0,30,0.00,CLR,,0.00,WeatherDisplay:10.37,2013-11-19 09:34:00,
2013-11-19 04:35:00,34.3,6.1,26.69,NW,308,3.5,0.0,30,0.00,CLR,,0.00,WeatherDisplay:10.37,2013-11-19 09:35:00,
2013-11-19 04:39:00,34.3,6.1,26.69,NW,308,3.5,0.0,30,0.00,CLR,,0.00,WeatherDisplay:10.37,2013-11-19 09:39:00,
2013-11-19 04:40:00,34.3,6.1,0.00,NW,308,0.0,3.0,30,0.00,CLR,,0.00,WeatherDisplay:10.37,2013-11-19 09:40:00,
2013-11-19 04:43:00,34.2,5.9,26.69,NW,308,3.5,0.0,30,0.00,CLR,,0.00,WeatherDisplay:10.37,2013-11-19 09:43:00,
2013-11-19 04:44:00,34.3,6.1,26.69,NW,308,3.5,0.0,30,0.00,CLR,,0.00,WeatherDisplay:10.37,2013-11-19 09:44:00,
2013-11-19 04:46:00,34.2,5.9,26.69,West,275,0.0,0.0,30,0.00,CLR,,0.00,WeatherDisplay:10.37,2013-11-19 09:46:00,
2013-11-19 04:47:00,34.2,5.9,26.69,West,275,0.0,0.0,30,0.00,CLR,,0.00,WeatherDisplay:10.37,2013-11-19 09:47:00,
2013-11-19 04:48:00,34.2,5.9,26.69,West,275,0.0,0.0,30,0.00,CLR,,0.00,WeatherDisplay:10.37,2013-11-19 09:48:00,
2013-11-19 04:49:00,34.2,5.9,26.69,West,275,0.0,0.0,30,0.00,CLR,,0.00,WeatherDisplay:10.37,2013-11-19 09:49:00,
2013-11-19 04:50:00,34.2,5.9,26.69,West,275,0.0,0.0,30,0.00,CLR,,0.00,WeatherDisplay:10.37,2013-11-19 09:50:00,
2013-11-19 04:52:00,34.2,5.9,26.69,West,275,0.0,0.0,30,0.00,CLR,,0.00,WeatherDisplay:10.37,2013-11-19 09:52:00,
2013-11-19 04:53:00,34.2,5.9,26.69,West,275,0.0,0.0,30,0.00,CLR,,0.00,WeatherDisplay:10.37,2013-11-19 09:53:00,
2013-11-19 04:54:00,34.2,5.9,26.69,West,275,0.0,0.0,30,0.00,CLR,,0.00,WeatherDisplay:10.37,2013-11-19 09:54:00,
2013-11-19 04:55:00,34.2,5.9,26.69,West,275,0.0,0.0,30,0.00,CLR,,0.00,WeatherDisplay:10.37,2013-11-19 09:55:00,
2013-11-19 04:56:00,34.2,5.9,26.69,West,275,0.0,0.0,30,0.00,CLR,,0.00,WeatherDisplay:10.37,2013-11-19 09:56:00,
2013-11-19 04:57:00,34.2,5.9,26.69,NW,312,0.0,0.0,30,0.00,CLR,,0.00,WeatherDisplay:10.37,2013-11-19 09:57:00,
2013-11-19 04:59:00,34.2,5.9,26.69,NW,312,0.0,0.0,30,0.00,CLR,,0.00,WeatherDisplay:10.37,2013-11-19 09:59:00,
2013-11-19 05:00:00,34.2,5.9,0.00,WNW,290,0.0,0.0,30,0.00,CLR,,0.00,WeatherDisplay:10.37,2013-11-19 10:00:00,
2013-11-19 05:02:00,34.2,5.9,26.69,NW,312,0.0,0.0,30,0.00,CLR,,0.00,WeatherDisplay:10.37,2013-11-19 10:02:00,
2013-11-19 05:03:00,34.2,5.9,26.69,NW,312,0.0,0.0,30,0.00,CLR,,0.00,WeatherDisplay:10.37,2013-11-19 10:03:00,
2013-11-19 05:05:00,34.2,5.9,0.00,NW,309,0.0,0.0,30,0.00,CLR,,0.00,WeatherDisplay:10.37,2013-11-19 10:05:00,
2013-11-19 05:08:00,34.2,5.9,26.69,NW,316,0.0,0.0,30,0.00,CLR,,0.00,WeatherDisplay:10.37,2013-11-19 10:08:00,
2013-11-19 05:10:00,34.2,6.6,26.69,NE,41,0.0,0.0,31,0.00,CLR,,0.00,WeatherDisplay:10.37,2013-11-19 10:10:00,
2013-11-19 05:14:00,34.2,5.9,26.69,NW,325,0.0,0.0,30,0.00,CLR,,0.00,WeatherDisplay:10.37,2013-11-19 10:14:00,
2013-11-19 05:15:00,34.2,5.9,26.69,NW,325,0.0,0.0,30,0.00,CLR,,0.00,WeatherDisplay:10.37,2013-11-19 10:15:00,
2013-11-19 05:16:00,34.2,5.9,26.69,NNW,346,0.0,0.0,30,0.00,CLR,,0.00,WeatherDisplay:10.37,2013-11-19 10:16:00,
2013-11-19 05:17:00,34.2,5.9,26.69,NNW,346,0.0,0.0,30,0.00,CLR,,0.00,WeatherDisplay:10.37,2013-11-19 10:17:00,
2013-11-19 05:19:00,34.2,5.9,26.69,NNW,328,0.0,0.0,30,0.00,CLR,,0.00,WeatherDisplay:10.37,2013-11-19 10:19:00,
2013-11-19 05:20:00,34.2,5.9,26.69,NNW,328,0.0,0.0,30,0.00,CLR,,0.00,WeatherDisplay:10.37,2013-11-19 10:20:00,
2013-11-19 05:23:00,34.0,5.7,26.69,NW,315,0.0,0.0,30,0.00,CLR,,0.00,WeatherDisplay:10.37,2013-11-19 10:23:00,
2013-11-19 05:24:00,34.0,5.7,26.69,NW,310,0.0,0.0,30,0.00,CLR,,0.00,WeatherDisplay:10.37,2013-11-19 10:24:00,
2013-11-19 05:25:00,34.0,5.7,26.69,NW,316,0.0,0.0,30,0.00,CLR,,0.00,WeatherDisplay:10.37,2013-11-19 10:25:00,
2013-11-19 05:27:00,34.0,5.7,26.69,NW,316,0.0,0.0,30,0.00,CLR,,0.00,WeatherDisplay:10.37,2013-11-19 10:27:00,
2013-11-19 05:28:00,34.0,5.7,26.69,NW,316,0.0,0.0,30,0.00,CLR,,0.00,WeatherDisplay:10.37,2013-11-19 10:28:00,
2013-11-19 05:29:00,34.0,5.7,26.69,NW,316,0.0,0.0,30,0.00,CLR,,0.00,WeatherDisplay:10.37,2013-11-19 10:29:00,
2013-11-19 05:30:00,34.0,5.7,26.69,NW,323,0.0,0.0,30,0.00,CLR,,0.00,WeatherDisplay:10.37,2013-11-19 10:30:00,
2013-11-19 05:33:00,34.0,5.7,26.69,NW,316,0.0,0.0,30,0.00,CLR,,0.00,WeatherDisplay:10.37,2013-11-19 10:33:00,
2013-11-19 05:35:00,34.0,5.7,0.00,NW,317,0.0,0.0,30,0.00,CLR,,0.00,WeatherDisplay:10.37,2013-11-19 10:35:00,
2013-11-19 05:36:00,34.0,5.7,26.69,North,0,0.0,0.0,30,0.00,CLR,,0.00,WeatherDisplay:10.37,2013-11-19 10:36:00,
2013-11-19 05:38:00,34.0,5.7,26.69,North,3,0.0,0.0,30,0.00,CLR,,0.00,WeatherDisplay:10.37,2013-11-19 10:38:00,
2013-11-19 05:42:00,34.0,5.7,26.69,North,357,0.0,0.0,30,0.00,CLR,,0.00,WeatherDisplay:10.37,2013-11-19 10:42:00,
2013-11-19 05:43:00,34.0,5.7,26.69,North,357,0.0,0.0,30,0.00,CLR,,0.00,WeatherDisplay:10.37,2013-11-19 10:43:00,
2013-11-19 05:45:00,33.8,5.6,0.00,North,358,0.0,0.0,30,0.00,CLR,,0.00,WeatherDisplay:10.37,2013-11-19 10:45:00,
2013-11-19 05:47:00,33.8,5.6,26.69,North,357,0.0,0.0,30,0.00,CLR,,0.00,WeatherDisplay:10.37,2013-11-19 10:47:00,
2013-11-19 05:49:00,33.8,5.6,26.69,NW,312,0.0,0.0,30,0.00,CLR,,0.00,WeatherDisplay:10.37,2013-11-19 10:49:00,
2013-11-19 05:50:00,33.8,5.6,0.00,NNW,346,0.0,0.0,30,0.00,CLR,,0.00,WeatherDisplay:10.37,2013-11-19 10:50:00,
2013-11-19 05:52:00,33.8,5.6,26.69,NW,326,0.0,0.0,30,0.00,CLR,,0.00,WeatherDisplay:10.37,2013-11-19 10:52:00,
2013-11-19 05:53:00,33.8,5.6,26.69,NW,314,0.0,0.0,30,0.00,CLR,,0.00,WeatherDisplay:10.37,2013-11-19 10:53:00,
2013-11-19 05:54:00,33.8,5.6,26.69,NW,312,0.0,0.0,30,0.00,CLR,,0.00,WeatherDisplay:10.37,2013-11-19 10:54:00,
2013-11-19 05:55:00,33.8,5.6,26.69,NW,314,0.0,0.0,30,0.00,CLR,,0.00,WeatherDisplay:10.37,2013-11-19 10:55:00,
2013-11-19 05:58:00,33.8,5.6,26.69,WNW,300,0.0,0.0,30,0.00,CLR,,0.00,WeatherDisplay:10.37,2013-11-19 10:58:00,
2013-11-19 06:00:00,33.8,5.6,26.69,NW,318,0.0,0.0,30,0.00,CLR,,0.00,WeatherDisplay:10.37,2013-11-19 11:00:00,
2013-11-19 06:01:00,33.8,5.6,26.69,NW,318,0.0,0.0,30,0.00,CLR,,0.00,WeatherDisplay:10.37,2013-11-19 11:01:00,
2013-11-19 06:02:00,33.8,5.6,26.69,NW,313,0.0,2.7,30,0.00,CLR,,0.00,WeatherDisplay:10.37,2013-11-19 11:02:00,
2013-11-19 06:03:00,33.8,5.6,26.69,NW,313,0.0,2.7,30,0.00,CLR,,0.00,WeatherDisplay:10.37,2013-11-19 11:03:00,
2013-11-19 06:05:00,33.8,5.6,26.69,NW,313,0.0,2.7,30,0.00,CLR,,0.00,WeatherDisplay:10.37,2013-11-19 11:05:00,
2013-11-19 06:07:00,33.8,5.6,26.69,NW,313,0.0,2.7,30,0.00,CLR,,0.00,WeatherDisplay:10.37,2013-11-19 11:07:00,
2013-11-19 06:08:00,33.8,5.6,26.69,NW,313,0.0,2.7,30,0.00,CLR,,0.00,WeatherDisplay:10.37,2013-11-19 11:08:00,
2013-11-19 06:10:00,33.8,5.6,26.69,NW,313,0.0,2.7,30,0.00,CLR,,0.00,WeatherDisplay:10.37,2013-11-19 11:10:00,
2013-11-19 06:11:00,33.8,5.6,26.69,NNW,332,0.0,0.0,30,0.00,CLR,,0.00,WeatherDisplay:10.37,2013-11-19 11:11:00,
2013-11-19 06:12:00,33.8,5.6,26.69,NNW,332,0.0,0.0,30,0.00,CLR,,0.00,WeatherDisplay:10.37,2013-11-19 11:12:00,
2013-11-19 06:13:00,33.8,5.6,26.69,NNW,332,0.0,0.0,30,0.00,CLR,,0.00,WeatherDisplay:10.37,2013-11-19 11:13:00,
2013-11-19 06:14:00,33.8,5.6,26.69,NNW,332,0.0,0.0,30,0.00,CLR,,0.00,WeatherDisplay:10.37,2013-11-19 11:14:00,
2013-11-19 06:15:00,33.8,5.6,26.69,NNW,332,0.0,0.0,30,0.00,CLR,,0.00,WeatherDisplay:10.37,2013-11-19 11:15:00,
2013-11-19 06:19:00,33.8,5.6,26.69,NNW,332,0.0,0.0,30,0.00,CLR,,0.00,WeatherDisplay:10.37,2013-11-19 11:19:00,
2013-11-19 06:20:00,33.8,5.6,26.69,NNW,332,0.0,0.0,30,0.00,CLR,,0.00,WeatherDisplay:10.37,2013-11-19 11:20:00,
2013-11-19 06:22:00,33.8,5.6,26.69,NNW,332,0.0,0.0,30,0.00,CLR,,0.00,WeatherDisplay:10.37,2013-11-19 11:22:00,
2013-11-19 06:24:00,33.8,5.6,26.69,NNW,330,0.0,0.0,30,0.00,CLR,,0.00,WeatherDisplay:10.37,2013-11-19 11:24:00,
2013-11-19 06:25:00,33.8,5.6,0.00,NNW,331,0.0,0.0,30,0.00,CLR,,0.00,WeatherDisplay:10.37,2013-11-19 11:25:00,
2013-11-19 06:26:00,33.8,5.6,26.69,NNW,330,0.0,0.0,30,0.00,CLR,,0.00,WeatherDisplay:10.37,2013-11-19 11:26:00,
2013-11-19 06:29:00,33.8,5.6,26.69,NNW,330,0.0,0.0,30,0.00,CLR,,0.00,WeatherDisplay:10.37,2013-11-19 11:29:00,
2013-11-19 06:30:00,33.8,5.6,0.00,NNW,330,0.0,0.0,30,0.00,CLR,,0.00,WeatherDisplay:10.37,2013-11-19 11:30:00,
2013-11-19 06:31:00,33.8,5.6,26.69,NNW,330,0.0,0.0,30,0.00,CLR,,0.00,WeatherDisplay:10.37,2013-11-19 11:31:00,
2013-11-19 06:35:00,33.8,5.6,26.69,NNW,329,0.0,0.0,30,0.00,CLR,,0.00,WeatherDisplay:10.37,2013-11-19 11:35:00,
2013-11-19 06:36:00,33.8,5.6,26.69,NNW,328,0.0,0.0,30,0.00,CLR,,0.00,WeatherDisplay:10.37,2013-11-19 11:36:00,
2013-11-19 06:37:00,33.8,5.6,26.69,NNW,329,0.0,0.0,30,0.00,CLR,,0.00,WeatherDisplay:10.37,2013-11-19 11:37:00,
2013-11-19 06:38:00,33.8,5.6,26.69,NW,320,0.0,0.0,30,0.00,CLR,,0.00,WeatherDisplay:10.37,2013-11-19 11:38:00,
2013-11-19 06:40:00,33.8,5.6,0.00,NNW,328,0.0,0.0,30,0.00,CLR,,0.00,WeatherDisplay:10.37,2013-11-19 11:40:00,
2013-11-19 06:41:00,33.8,5.6,26.69,NNW,337,0.0,0.0,30,0.00,CLR,,0.00,WeatherDisplay:10.37,2013-11-19 11:41:00,
2013-11-19 06:42:00,33.8,5.6,26.69,NW,322,0.0,0.0,30,0.00,CLR,,0.00,WeatherDisplay:10.37,2013-11-19 11:42:00,
2013-11-19 06:43:00,33.8,5.6,26.69,NW,322,0.0,0.0,30,0.00,CLR,,0.00,WeatherDisplay:10.37,2013-11-19 11:43:00,
2013-11-19 06:44:00,33.8,5.6,26.69,NW,322,0.0,0.0,30,0.00,CLR,,0.00,WeatherDisplay:10.37,2013-11-19 11:44:00,
2013-11-19 06:45:00,33.8,5.6,0.00,NW,326,0.0,0.0,30,0.00,CLR,,0.00,WeatherDisplay:10.37,2013-11-19 11:45:00,
2013-11-19 06:48:00,33.8,5.6,26.69,NW,321,0.0,0.0,30,0.00,CLR,,0.00,WeatherDisplay:10.37,2013-11-19 11:48:00,
2013-11-19 06:49:00,33.8,5.6,26.69,NW,321,0.0,0.0,30,0.00,CLR,,0.00,WeatherDisplay:10.37,2013-11-19 11:49:00,
2013-11-19 06:50:00,33.8,5.6,26.69,NW,321,0.0,0.0,30,0.00,CLR,,0.00,WeatherDisplay:10.37,2013-11-19 11:50:00,
2013-11-19 06:51:00,33.8,5.6,26.69,NW,321,0.0,0.0,30,0.00,CLR,,0.00,WeatherDisplay:10.37,2013-11-19 11:51:00,
2013-11-19 06:53:00,33.8,5.6,26.69,NW,321,0.0,0.0,30,0.00,CLR,,0.00,WeatherDisplay:10.37,2013-11-19 11:53:00,
2013-11-19 06:56:00,33.6,6.1,26.69,NNW,330,0.0,0.0,31,0.00,CLR,,0.00,WeatherDisplay:10.37,2013-11-19 11:56:00,
2013-11-19 06:57:00,33.6,6.1,26.69,NNW,335,0.0,0.0,31,0.00,CLR,,0.00,WeatherDisplay:10.37,2013-11-19 11:57:00,
2013-11-19 06:58:00,33.6,6.1,26.69,NNW,335,0.0,0.0,31,0.00,CLR,,0.00,WeatherDisplay:10.37,2013-11-19 11:58:00,
2013-11-19 07:01:00,33.6,6.1,26.69,NW,321,0.0,0.0,31,0.00,CLR,,0.00,WeatherDisplay:10.37,2013-11-19 12:01:00,
2013-11-19 07:02:00,33.6,6.1,26.69,NW,314,0.0,0.0,31,0.00,CLR,,0.00,WeatherDisplay:10.37,2013-11-19 12:02:00,
2013-11-19 07:03:00,33.6,6.1,26.69,NW,314,0.0,0.0,31,0.00,CLR,,0.00,WeatherDisplay:10.37,2013-11-19 12:03:00,
2013-11-19 07:04:00,33.6,6.1,26.69,NW,314,0.0,0.0,31,0.00,CLR,,0.00,WeatherDisplay:10.37,2013-11-19 12:04:00,
2013-11-19 07:06:00,33.6,6.1,26.69,NW,314,0.0,0.0,31,0.00,CLR,,0.00,WeatherDisplay:10.37,2013-11-19 12:06:00,
2013-11-19 07:07:00,33.6,6.1,26.69,NW,314,0.0,0.0,31,0.00,CLR,,0.00,WeatherDisplay:10.37,2013-11-19 12:07:00,
2013-11-19 07:08:00,33.6,6.1,26.69,NW,314,0.0,0.0,31,0.00,CLR,,0.00,WeatherDisplay:10.37,2013-11-19 12:08:00,
2013-11-19 07:10:00,33.6,6.1,26.69,NW,314,0.0,0.0,31,0.00,CLR,,0.00,WeatherDisplay:10.37,2013-11-19 12:10:00,
2013-11-19 07:12:00,33.6,6.1,26.69,NW,316,0.0,0.0,31,0.00,CLR,,0.00,WeatherDisplay:10.37,2013-11-19 12:12:00,
2013-11-19 07:13:00,33.6,6.1,26.69,NW,316,0.0,0.0,31,0.00,CLR,,0.00,WeatherDisplay:10.37,2013-11-19 12:13:00,
2013-11-19 07:14:00,33.6,6.1,26.69,North,3,0.0,0.0,31,0.00,CLR,,0.00,WeatherDisplay:10.37,2013-11-19 12:14:00,
2013-11-19 07:16:00,33.6,6.1,26.69,North,357,0.0,0.0,31,0.00,CLR,,0.00,WeatherDisplay:10.37,2013-11-19 12:16:00,
2013-11-19 07:19:00,33.6,6.1,26.69,North,357,0.0,0.0,31,0.00,CLR,,0.00,WeatherDisplay:10.37,2013-11-19 12:19:00,
2013-11-19 07:21:00,33.6,6.1,26.69,SSE,157,0.0,0.0,31,0.00,CLR,,0.00,WeatherDisplay:10.37,2013-11-19 12:21:00,
2013-11-19 07:22:00,33.6,6.1,26.69,SW,218,0.0,0.0,31,0.00,CLR,,0.00,WeatherDisplay:10.37,2013-11-19 12:22:00,
2013-11-19 07:24:00,33.6,6.1,26.69,SW,219,0.0,0.0,31,0.00,CLR,,0.00,WeatherDisplay:10.37,2013-11-19 12:24:00,
2013-11-19 07:26:00,33.6,6.1,26.69,NNW,344,0.0,0.0,31,0.00,CLR,,0.00,WeatherDisplay:10.37,2013-11-19 12:26:00,
2013-11-19 07:28:00,33.4,6.0,26.69,NNW,343,0.0,0.0,31,0.00,CLR,,0.00,WeatherDisplay:10.37,2013-11-19 12:28:00,
2013-11-19 07:30:00,33.4,6.0,26.69,NNW,343,0.0,0.0,31,0.00,CLR,,0.00,WeatherDisplay:10.37,2013-11-19 12:30:00,
2013-11-19 07:31:00,33.4,6.0,26.69,NNW,343,0.0,0.0,31,0.00,CLR,,0.00,WeatherDisplay:10.37,2013-11-19 12:31:00,
2013-11-19 07:32:00,33.4,6.0,26.69,NNW,343,0.0,0.0,31,0.00,CLR,,0.00,WeatherDisplay:10.37,2013-11-19 12:32:00,
2013-11-19 07:33:00,33.4,6.0,26.69,NNW,343,0.0,0.0,31,0.00,CLR,,0.00,WeatherDisplay:10.37,2013-11-19 12:33:00,
2013-11-19 07:34:00,33.4,6.0,26.69,NNW,343,0.0,0.0,31,0.00,CLR,,0.00,WeatherDisplay:10.37,2013-11-19 12:34:00,
2013-11-19 07:36:00,33.4,6.0,26.69,NNW,343,0.0,0.0,31,0.00,CLR,,0.00,WeatherDisplay:10.37,2013-11-19 12:36:00,
2013-11-19 07:37:00,33.4,6.0,26.69,NNW,343,0.0,0.0,31,0.00,CLR,,0.00,WeatherDisplay:10.37,2013-11-19 12:37:00,
2013-11-19 07:38:00,33.3,5.8,26.69,NNW,329,0.0,0.0,31,0.00,CLR,,0.00,WeatherDisplay:10.37,2013-11-19 12:38:00,
2013-11-19 07:40:00,33.3,5.8,0.00,NNW,338,0.0,0.0,31,0.00,CLR,,0.00,WeatherDisplay:10.37,2013-11-19 12:40:00,
2013-11-19 07:41:00,33.3,5.8,26.69,NNW,329,0.0,0.0,31,0.00,CLR,,0.00,WeatherDisplay:10.37,2013-11-19 12:41:00,
2013-11-19 07:42:00,33.3,5.8,26.69,NNW,329,0.0,0.0,31,0.00,CLR,,0.00,WeatherDisplay:10.37,2013-11-19 12:42:00,
2013-11-19 07:43:00,33.3,5.8,26.69,NNW,329,0.0,0.0,31,0.00,CLR,,0.00,WeatherDisplay:10.37,2013-11-19 12:43:00,
2013-11-19 07:45:00,33.3,5.8,0.00,NNW,331,0.0,0.0,31,0.00,CLR,,0.00,WeatherDisplay:10.37,2013-11-19 12:45:00,
2013-11-19 07:46:00,33.3,5.8,26.69,NNW,329,0.0,0.0,31,0.00,CLR,,0.00,WeatherDisplay:10.37,2013-11-19 12:46:00,
2013-11-19 07:49:00,33.3,5.8,26.69,NNW,329,0.0,0.0,31,0.00,CLR,,0.00,WeatherDisplay:10.37,2013-11-19 12:49:00,
2013-11-19 07:50:00,33.3,5.8,26.69,NNW,329,0.0,0.0,31,0.00,CLR,,0.00,WeatherDisplay:10.37,2013-11-19 12:50:00,
2013-11-19 07:52:00,33.3,5.8,26.69,NNW,329,0.0,0.0,31,0.00,CLR,,0.00,WeatherDisplay:10.37,2013-11-19 12:52:00,
2013-11-19 07:53:00,33.3,5.8,26.69,NNW,329,0.0,0.0,31,0.00,CLR,,0.00,WeatherDisplay:10.37,2013-11-19 12:53:00,
2013-11-19 07:54:00,33.3,5.8,26.69,NNW,329,0.0,0.0,31,0.00,CLR,,0.00,WeatherDisplay:10.37,2013-11-19 12:54:00,
2013-11-19 07:55:00,33.3,5.8,26.69,NNW,329,0.0,0.0,31,0.00,CLR,,0.00,WeatherDisplay:10.37,2013-11-19 12:55:00,
2013-11-19 07:57:00,33.1,5.7,26.69,NNW,329,0.0,0.0,31,0.00,CLR,,0.00,WeatherDisplay:10.37,2013-11-19 12:57:00,
2013-11-19 07:58:00,33.1,5.7,26.69,NW,312,0.0,0.0,31,0.00,CLR,,0.00,WeatherDisplay:10.37,2013-11-19 12:58:00,
2013-11-19 07:59:00,33.1,5.7,26.69,NW,312,0.0,0.0,31,0.00,CLR,,0.00,WeatherDisplay:10.37,2013-11-19 12:59:00,
2013-11-19 08:01:00,33.1,5.7,26.69,NW,312,0.0,0.0,31,0.00,CLR,,0.00,WeatherDisplay:10.37,2013-11-19 13:01:00,
2013-11-19 08:02:00,33.3,5.8,26.69,NW,312,0.0,0.0,31,0.00,CLR,,0.00,WeatherDisplay:10.37,2013-11-19 13:02:00,
2013-11-19 08:04:00,33.3,5.8,26.69,NW,312,0.0,0.0,31,0.00,CLR,,0.00,WeatherDisplay:10.37,2013-11-19 13:04:00,
2013-11-19 08:07:00,33.1,5.7,26.69,NW,312,0.0,0.0,31,0.00,CLR,,0.00,WeatherDisplay:10.37,2013-11-19 13:07:00,
2013-11-19 08:08:00,33.1,5.7,26.69,NW,312,0.0,0.0,31,0.00,CLR,,0.00,WeatherDisplay:10.37,2013-11-19 13:08:00,
2013-11-19 08:10:00,33.1,5.7,0.00,NW,312,0.0,0.0,31,0.00,CLR,,0.00,WeatherDisplay:10.37,2013-11-19 13:10:00,
2013-11-19 08:11:00,33.3,5.8,26.69,NW,312,0.0,0.0,31,0.00,CLR,,0.00,WeatherDisplay:10.37,2013-11-19 13:11:00,
2013-11-19 08:12:00,33.3,5.8,26.69,NW,312,0.0,0.0,31,0.00,CLR,,0.00,WeatherDisplay:10.37,2013-11-19 13:12:00,
2013-11-19 08:13:00,33.3,5.8,26.69,NW,312,0.0,0.0,31,0.00,CLR,,0.00,WeatherDisplay:10.37,2013-11-19 13:13:00,
2013-11-19 08:15:00,33.3,5.8,26.69,NW,312,0.0,0.0,31,0.00,CLR,,0.00,WeatherDisplay:10.37,2013-11-19 13:15:00,
2013-11-19 08:16:00,33.3,5.8,26.69,NW,312,0.0,0.0,31,0.00,CLR,,0.00,WeatherDisplay:10.37,2013-11-19 13:16:00,
2013-11-19 08:17:00,33.3,5.8,26.69,NW,312,0.0,0.0,31,0.00,CLR,,0.00,WeatherDisplay:10.37,2013-11-19 13:17:00,
2013-11-19 08:19:00,33.3,5.8,26.69,NW,312,0.0,0.0,31,0.00,CLR,,0.00,WeatherDisplay:10.37,2013-11-19 13:19:00,
2013-11-19 08:21:00,33.3,5.8,26.69,NW,312,0.0,0.0,31,0.00,CLR,,0.00,WeatherDisplay:10.37,2013-11-19 13:21:00,
2013-11-19 08:23:00,33.4,6.0,26.69,NW,312,0.0,0.0,31,0.00,CLR,,0.00,WeatherDisplay:10.37,2013-11-19 13:23:00,
2013-11-19 08:25:00,33.6,6.1,0.00,NW,312,0.0,0.0,31,0.00,CLR,,0.00,WeatherDisplay:10.37,2013-11-19 13:25:00,
2013-11-19 08:28:00,33.8,5.6,26.69,NW,312,0.0,0.0,30,0.00,CLR,,0.00,WeatherDisplay:10.37,2013-11-19 13:28:00,
2013-11-19 08:30:00,33.8,5.6,0.00,NW,312,0.0,0.0,30,0.00,CLR,,0.00,WeatherDisplay:10.37,2013-11-19 13:30:00,
2013-11-19 08:32:00,34.0,5.7,26.69,NW,312,0.0,0.0,30,0.00,CLR,,0.00,WeatherDisplay:10.37,2013-11-19 13:32:00,
2013-11-19 08:33:00,34.0,5.7,26.69,NW,312,0.0,0.0,30,0.00,CLR,,0.00,WeatherDisplay:10.37,2013-11-19 13:33:00,
2013-11-19 08:35:00,34.3,6.1,26.69,NW,312,0.0,0.0,30,0.00,CLR,,0.00,WeatherDisplay:10.37,2013-11-19 13:35:00,
2013-11-19 08:36:00,34.3,6.1,26.69,NW,312,0.0,0.0,30,0.00,CLR,,0.00,WeatherDisplay:10.37,2013-11-19 13:36:00,
2013-11-19 08:37:00,34.7,6.4,26.69,NW,312,0.0,0.0,30,0.00,CLR,,0.00,WeatherDisplay:10.37,2013-11-19 13:37:00,
2013-11-19 08:38:00,34.7,6.4,26.69,NW,324,0.0,0.0,30,0.00,CLR,,0.00,WeatherDisplay:10.37,2013-11-19 13:38:00,
2013-11-19 08:39:00,34.9,6.5,26.69,NW,324,0.0,0.0,30,0.00,CLR,,0.00,WeatherDisplay:10.37,2013-11-19 13:39:00,
2013-11-19 08:41:00,35.1,6.7,26.69,NNW,331,0.0,0.0,30,0.00,CLR,,0.00,WeatherDisplay:10.37,2013-11-19 13:41:00,
2013-11-19 08:42:00,35.4,7.0,26.69,NNW,331,0.0,0.0,30,0.00,CLR,,0.00,WeatherDisplay:10.37,2013-11-19 13:42:00,
2013-11-19 08:44:00,35.6,7.2,26.69,NW,318,0.0,0.0,30,0.00,CLR,,0.00,WeatherDisplay:10.37,2013-11-19 13:44:00,
2013-11-19 08:46:00,35.6,7.2,26.69,NW,318,0.0,0.0,30,0.00,CLR,,0.00,WeatherDisplay:10.37,2013-11-19 13:46:00,
2013-11-19 08:48:00,35.4,7.0,26.69,NW,318,0.0,0.0,30,0.00,CLR,,0.00,WeatherDisplay:10.37,2013-11-19 13:48:00,
2013-11-19 08:49:00,35.4,7.0,26.69,NW,318,0.0,0.0,30,0.00,CLR,,0.00,WeatherDisplay:10.37,2013-11-19 13:49:00,
2013-11-19 08:51:00,35.4,7.0,26.69,NW,318,0.0,0.0,30,0.00,CLR,,0.00,WeatherDisplay:10.37,2013-11-19 13:51:00,
2013-11-19 08:53:00,35.4,7.0,26.69,NW,318,0.0,0.0,30,0.00,CLR,,0.00,WeatherDisplay:10.37,2013-11-19 13:53:00,
2013-11-19 08:54:00,35.6,7.2,26.69,NW,318,0.0,0.0,30,0.00,CLR,,0.00,WeatherDisplay:10.37,2013-11-19 13:54:00,
2013-11-19 08:55:00,35.6,7.2,26.69,NW,318,0.0,0.0,30,0.00,CLR,,0.00,WeatherDisplay:10.37,2013-11-19 13:55:00,
2013-11-19 08:57:00,36.0,6.7,26.69,NW,318,0.0,0.0,29,0.00,CLR,,0.00,WeatherDisplay:10.37,2013-11-19 13:57:00,
2013-11-19 08:59:00,37.2,7.8,26.69,NW,318,0.0,0.0,29,0.00,CLR,,0.00,WeatherDisplay:10.37,2013-11-19 13:59:00,
2013-11-19 09:00:00,37.6,8.1,26.69,NW,318,0.0,0.0,29,0.00,CLR,,0.00,WeatherDisplay:10.37,2013-11-19 14:00:00,
2013-11-19 09:01:00,38.1,8.6,26.69,NW,318,0.0,0.0,29,0.00,CLR,,0.00,WeatherDisplay:10.37,2013-11-19 14:01:00,
2013-11-19 09:02:00,38.7,9.1,26.69,NW,324,0.0,0.0,29,0.00,CLR,,0.00,WeatherDisplay:10.37,2013-11-19 14:02:00,
2013-11-19 09:03:00,39.2,7.1,26.69,NW,326,0.0,0.0,26,0.00,CLR,,0.00,WeatherDisplay:10.37,2013-11-19 14:03:00,
2013-11-19 09:04:00,39.9,7.7,26.69,NW,326,0.0,0.0,26,0.00,CLR,,0.00,WeatherDisplay:10.37,2013-11-19 14:04:00,
2013-11-19 09:05:00,40.3,8.1,26.69,NW,326,0.0,0.0,26,0.00,CLR,,0.00,WeatherDisplay:10.37,2013-11-19 14:05:00,
2013-11-19 09:07:00,40.6,8.4,26.69,NW,326,0.0,0.0,26,0.00,CLR,,0.00,WeatherDisplay:10.37,2013-11-19 14:07:00,
2013-11-19 09:08:00,40.3,8.1,26.69,NW,326,0.0,0.0,26,0.00,CLR,,0.00,WeatherDisplay:10.37,2013-11-19 14:08:00,
2013-11-19 09:09:00,40.1,7.9,26.69,NW,326,0.0,0.0,26,0.00,CLR,,0.00,WeatherDisplay:10.37,2013-11-19 14:09:00,
2013-11-19 09:10:00,40.4,8.1,0.00,NW,325,0.0,0.0,26,0.00,CLR,,0.00,WeatherDisplay:10.37,2013-11-19 14:10:00,
2013-11-19 09:11:00,41.4,9.0,26.69,NW,326,0.0,0.0,26,0.00,CLR,,0.00,WeatherDisplay:10.37,2013-11-19 14:11:00,
2013-11-19 09:12:00,41.4,9.0,26.69,NW,326,0.0,0.0,26,0.00,CLR,,0.00,WeatherDisplay:10.37,2013-11-19 14:12:00,
2013-11-19 09:14:00,41.9,9.5,26.69,NW,326,0.0,0.0,26,0.00,CLR,,0.00,WeatherDisplay:10.37,2013-11-19 14:14:00,
2013-11-19 09:15:00,42.4,9.9,26.69,NW,326,0.0,0.0,26,0.00,CLR,,0.00,WeatherDisplay:10.37,2013-11-19 14:15:00,
2013-11-19 09:16:00,43.3,9.8,26.69,NW,326,0.0,0.0,25,0.00,CLR,,0.00,WeatherDisplay:10.37,2013-11-19 14:16:00,
2013-11-19 09:17:00,44.4,8.9,26.69,NW,326,0.0,0.0,23,0.00,CLR,,0.00,WeatherDisplay:10.37,2013-11-19 14:17:00,
2013-11-19 09:18:00,45.1,11.3,26.69,NW,326,0.0,0.0,25,0.00,CLR,,0.00,WeatherDisplay:10.37,2013-11-19 14:18:00,
2013-11-19 09:19:00,45.9,12.0,26.69,NW,326,0.0,0.0,25,0.00,CLR,,0.00,WeatherDisplay:10.37,2013-11-19 14:19:00,
2013-11-19 09:22:00,49.1,10.8,26.69,NW,326,0.0,0.0,21,0.00,CLR,,0.00,WeatherDisplay:10.37,2013-11-19 14:22:00,
2013-11-19 09:23:00,50.2,11.7,26.69,NW,326,0.0,0.0,21,0.00,CLR,,0.00,WeatherDisplay:10.37,2013-11-19 14:23:00,
2013-11-19 09:25:00,50.2,11.7,26.69,NW,326,0.0,0.0,21,0.00,CLR,,0.00,WeatherDisplay:10.37,2013-11-19 14:25:00,
2013-11-19 09:26:00,51.1,12.4,26.69,NW,326,0.0,0.0,21,0.00,CLR,,0.00,WeatherDisplay:10.37,2013-11-19 14:26:00,
2013-11-19 09:27:00,52.0,13.2,26.69,NW,326,0.0,0.0,21,0.00,CLR,,0.00,WeatherDisplay:10.37,2013-11-19 14:27:00,
2013-11-19 09:28:00,52.2,13.3,26.69,NW,326,0.0,0.0,21,0.00,CLR,,0.00,WeatherDisplay:10.37,2013-11-19 14:28:00,
2013-11-19 09:29:00,52.0,13.2,26.69,NW,326,0.0,0.0,21,0.00,CLR,,0.00,WeatherDisplay:10.37,2013-11-19 14:29:00,
2013-11-19 09:31:00,52.3,13.5,26.69,NW,326,0.0,0.0,21,0.00,CLR,,0.00,WeatherDisplay:10.37,2013-11-19 14:31:00,
2013-11-19 09:32:00,51.6,12.9,26.69,NW,326,0.0,0.0,21,0.00,CLR,,0.00,WeatherDisplay:10.37,2013-11-19 14:32:00,
2013-11-19 09:33:00,51.6,12.9,26.69,NW,326,0.0,0.0,21,0.00,CLR,,0.00,WeatherDisplay:10.37,2013-11-19 14:33:00,
2013-11-19 09:34:00,51.6,12.9,26.69,NW,326,0.0,0.0,21,0.00,CLR,,0.00,WeatherDisplay:10.37,2013-11-19 14:34:00,
2013-11-19 09:35:00,49.8,11.4,26.69,NW,326,0.0,0.0,21,0.00,CLR,,0.00,WeatherDisplay:10.37,2013-11-19 14:35:00,
2013-11-19 09:36:00,49.3,10.9,26.69,NW,326,0.0,0.0,21,0.00,CLR,,0.00,WeatherDisplay:10.37,2013-11-19 14:36:00,
2013-11-19 09:37:00,48.0,10.9,26.69,NW,326,0.0,0.0,22,0.00,CLR,,0.00,WeatherDisplay:10.37,2013-11-19 14:37:00,
2013-11-19 09:39:00,46.8,9.9,26.69,NW,326,0.0,0.0,22,0.00,CLR,,0.00,WeatherDisplay:10.37,2013-11-19 14:39:00,
2013-11-19 09:40:00,46.0,9.2,26.69,NW,326,0.0,0.0,22,0.00,CLR,,0.00,WeatherDisplay:10.37,2013-11-19 14:40:00,
2013-11-19 09:41:00,45.7,8.9,26.69,NW,326,0.0,0.0,22,0.00,CLR,,0.00,WeatherDisplay:10.37,2013-11-19 14:41:00,
2013-11-19 09:42:00,45.3,8.6,26.69,NW,326,0.0,0.0,22,0.00,CLR,,0.00,WeatherDisplay:10.37,2013-11-19 14:42:00,
2013-11-19 09:44:00,45.3,8.6,26.69,NW,326,0.0,0.0,22,0.00,CLR,,0.00,WeatherDisplay:10.37,2013-11-19 14:44:00,
2013-11-19 09:45:00,45.5,8.8,26.69,NW,326,0.0,0.0,22,0.00,CLR,,0.00,WeatherDisplay:10.37,2013-11-19 14:45:00,
2013-11-19 09:49:00,49.3,10.9,26.69,NW,326,0.0,0.0,21,0.00,CLR,,0.00,WeatherDisplay:10.37,2013-11-19 14:49:00,
2013-11-19 09:50:00,49.8,11.4,26.69,NW,326,0.0,0.0,21,0.00,CLR,,0.00,WeatherDisplay:10.37,2013-11-19 14:50:00,
2013-11-19 09:51:00,50.5,12.0,26.69,NW,326,0.0,0.0,21,0.00,CLR,,0.00,WeatherDisplay:10.37,2013-11-19 14:51:00,
2013-11-19 09:53:00,51.6,12.9,26.69,NW,326,0.0,0.0,21,0.00,CLR,,0.00,WeatherDisplay:10.37,2013-11-19 14:53:00,
2013-11-19 09:55:00,51.8,13.0,26.69,NW,326,0.0,0.0,21,0.00,CLR,,0.00,WeatherDisplay:10.37,2013-11-19 14:55:00,
2013-11-19 09:56:00,52.0,13.2,26.69,NW,326,0.0,0.0,21,0.00,CLR,,0.00,WeatherDisplay:10.37,2013-11-19 14:56:00,
2013-11-19 09:57:00,51.3,12.6,26.69,NW,326,0.0,0.0,21,0.00,CLR,,0.00,WeatherDisplay:10.37,2013-11-19 14:57:00,
2013-11-19 09:58:00,51.4,12.7,26.69,NW,326,0.0,0.0,21,0.00,CLR,,0.00,WeatherDisplay:10.37,2013-11-19 14:58:00,
2013-11-19 10:00:00,51.2,12.5,0.00,NW,326,0.0,0.0,21,0.00,CLR,,0.00,WeatherDisplay:10.37,2013-11-19 15:00:00,
2013-11-19 10:01:00,51.6,12.9,26.69,NW,326,0.0,0.0,21,0.00,CLR,,0.00,WeatherDisplay:10.37,2013-11-19 15:01:00,
2013-11-19 10:02:00,51.6,12.9,26.69,NW,326,0.0,0.0,21,0.00,CLR,,0.00,WeatherDisplay:10.37,2013-11-19 15:02:00,
2013-11-19 10:03:00,51.3,12.6,26.69,NW,326,0.0,0.0,21,0.00,CLR,,0.00,WeatherDisplay:10.37,2013-11-19 15:03:00,
2013-11-19 10:04:00,51.1,12.4,26.69,NW,326,0.0,0.0,21,0.00,CLR,,0.00,WeatherDisplay:10.37,2013-11-19 15:04:00,
2013-11-19 10:07:00,51.1,12.4,26.69,NW,326,0.0,0.0,21,0.00,CLR,,0.00,WeatherDisplay:10.37,2013-11-19 15:07:00,
2013-11-19 10:08:00,50.9,12.3,26.69,NW,326,0.0,0.0,21,0.00,CLR,,0.00,WeatherDisplay:10.37,2013-11-19 15:08:00,
2013-11-19 10:09:00,51.3,12.6,26.69,NW,326,0.0,0.0,21,0.00,CLR,,0.00,WeatherDisplay:10.37,2013-11-19 15:09:00,
2013-11-19 10:10:00,50.5,12.0,26.69,NW,326,0.0,0.0,21,0.00,CLR,,0.00,WeatherDisplay:10.37,2013-11-19 15:10:00,
2013-11-19 10:11:00,50.2,11.7,26.69,NW,326,0.0,0.0,21,0.00,CLR,,0.00,WeatherDisplay:10.37,2013-11-19 15:11:00,
2013-11-19 10:15:00,50.4,11.8,26.69,NW,326,0.0,0.0,21,0.00,CLR,,0.00,WeatherDisplay:10.37,2013-11-19 15:15:00,
2013-11-19 10:16:00,49.5,11.1,26.69,NW,326,0.0,0.0,21,0.00,CLR,,0.00,WeatherDisplay:10.37,2013-11-19 15:16:00,
2013-11-19 10:17:00,49.1,10.8,26.69,NW,326,0.0,0.0,21,0.00,CLR,,0.00,WeatherDisplay:10.37,2013-11-19 15:17:00,
2013-11-19 10:20:00,48.2,10.0,26.69,NW,326,0.0,0.0,21,0.00,CLR,,0.00,WeatherDisplay:10.37,2013-11-19 15:20:00,
2013-11-19 10:22:00,48.0,10.9,26.69,NW,326,0.0,0.0,22,0.00,CLR,,0.00,WeatherDisplay:10.37,2013-11-19 15:22:00,
2013-11-19 10:24:00,48.6,10.3,26.69,NW,326,0.0,0.0,21,0.00,CLR,,0.00,WeatherDisplay:10.37,2013-11-19 15:24:00,
2013-11-19 10:25:00,48.9,10.6,26.69,NNE,12,0.0,0.0,21,0.00,CLR,,0.00,WeatherDisplay:10.37,2013-11-19 15:25:00,
2013-11-19 10:27:00,48.7,10.5,26.69,NW,311,3.5,0.0,21,0.00,CLR,,0.00,WeatherDisplay:10.37,2013-11-19 15:27:00,
2013-11-19 10:29:00,47.8,10.8,26.69,NW,319,3.6,3.6,22,0.00,CLR,,0.00,WeatherDisplay:10.37,2013-11-19 15:29:00,
2013-11-19 10:30:00,47.8,10.8,26.69,NNW,343,3.5,3.5,22,0.00,CLR,,0.00,WeatherDisplay:10.37,2013-11-19 15:30:00,
2013-11-19 10:31:00,47.8,10.8,26.69,NE,42,3.5,0.0,22,0.00,CLR,,0.00,WeatherDisplay:10.37,2013-11-19 15:31:00,
2013-11-19 10:32:00,47.1,10.2,26.69,NE,54,2.3,0.0,22,0.00,CLR,,0.00,WeatherDisplay:10.37,2013-11-19 15:32:00,
2013-11-19 10:33:00,46.6,9.7,26.69,North,353,0.0,0.0,22,0.00,CLR,,0.00,WeatherDisplay:10.37,2013-11-19 15:33:00,
2013-11-19 10:34:00,46.2,9.4,26.69,North,353,0.0,0.0,22,0.00,CLR,,0.00,WeatherDisplay:10.37,2013-11-19 15:34:00,
2013-11-19 10:35:00,46.0,9.2,0.00,NNW,345,0.0,4.0,22,0.00,CLR,,0.00,WeatherDisplay:10.37,2013-11-19 15:35:00,
2013-11-19 10:37:00,45.3,8.6,26.69,ENE,66,0.0,0.0,22,0.00,CLR,,0.00,WeatherDisplay:10.37,2013-11-19 15:37:00,
2013-11-19 10:39:00,46.2,9.4,26.69,West,275,3.5,3.5,22,0.00,CLR,,0.00,WeatherDisplay:10.37,2013-11-19 15:39:00,
2013-11-19 10:40:00,46.2,9.4,26.69,NE,47,2.3,0.0,22,0.00,CLR,,0.00,WeatherDisplay:10.37,2013-11-19 15:40:00,
2013-11-19 10:42:00,45.0,8.3,26.69,NNW,335,0.0,0.0,22,0.00,CLR,,0.00,WeatherDisplay:10.37,2013-11-19 15:42:00,
2013-11-19 10:43:00,44.6,8.0,26.69,NE,43,2.3,0.0,22,0.00,CLR,,0.00,WeatherDisplay:10.37,2013-11-19 15:43:00,
2013-11-19 10:45:00,45.0,8.4,0.00,NNE,13,0.0,2.0,22,0.00,CLR,,0.00,WeatherDisplay:10.37,2013-11-19 15:45:00,
2013-11-19 10:46:00,46.6,9.7,26.69,NNE,22,0.0,0.0,22,0.00,CLR,,0.00,WeatherDisplay:10.37,2013-11-19 15:46:00,
2013-11-19 10:47:00,47.7,10.6,26.69,North,353,2.7,0.0,22,0.00,CLR,,0.00,WeatherDisplay:10.37,2013-11-19 15:47:00,
2013-11-19 10:49:00,50.7,12.1,26.69,NE,56,3.5,3.5,21,0.00,CLR,,0.00,WeatherDisplay:10.37,2013-11-19 15:49:00,
2013-11-19 10:50:00,51.3,12.6,26.69,WNW,282,2.3,2.3,21,0.00,CLR,,0.00,WeatherDisplay:10.37,2013-11-19 15:50:00,
2013-11-19 10:51:00,50.7,12.1,26.69,NW,304,3.5,3.6,21,0.00,CLR,,0.00,WeatherDisplay:10.37,2013-11-19 15:51:00,
2013-11-19 10:52:00,50.5,12.0,26.69,NE,47,3.5,0.0,21,0.00,CLR,,0.00,WeatherDisplay:10.37,2013-11-19 15:52:00,
2013-11-19 10:55:00,48.7,10.5,26.69,SSW,196,2.3,0.0,21,0.00,CLR,,0.00,WeatherDisplay:10.37,2013-11-19 15:55:00,
2013-11-19 10:56:00,47.3,10.3,26.69,NNE,20,0.0,0.0,22,0.00,CLR,,0.00,WeatherDisplay:10.37,2013-11-19 15:56:00,
2013-11-19 10:57:00,47.3,10.3,26.69,North,2,0.0,0.0,22,0.00,CLR,,0.00,WeatherDisplay:10.37,2013-11-19 15:57:00,
2013-11-19 10:59:00,47.1,10.2,26.69,WNW,294,3.5,3.5,22,0.00,CLR,,0.00,WeatherDisplay:10.37,2013-11-19 15:59:00,
2013-11-19 11:01:00,46.2,9.4,26.69,WNW,299,0.0,0.0,22,0.00,CLR,,0.00,WeatherDisplay:10.37,2013-11-19 16:01:00,
2013-11-19 11:02:00,46.2,9.4,26.69,NW,306,0.0,0.0,22,0.00,CLR,,0.00,WeatherDisplay:10.37,2013-11-19 16:02:00,
2013-11-19 11:04:00,46.9,10.0,26.69,NW,314,0.0,0.0,22,0.00,CLR,,0.00,WeatherDisplay:10.37,2013-11-19 16:04:00,
2013-11-19 11:05:00,46.9,10.0,0.00,NW,323,0.0,0.0,22,0.00,CLR,,0.00,WeatherDisplay:10.37,2013-11-19 16:05:00,
2013-11-19 11:07:00,47.5,10.5,26.69,WSW,258,0.0,0.0,22,0.00,CLR,,0.00,WeatherDisplay:10.37,2013-11-19 16:07:00,
2013-11-19 11:08:00,47.1,10.2,26.69,NNW,338,4.0,0.0,22,0.00,CLR,,0.00,WeatherDisplay:10.37,2013-11-19 16:08:00,
2013-11-19 11:10:00,46.7,9.8,0.00,NW,320,2.0,4.0,22,0.00,CLR,,0.00,WeatherDisplay:10.37,2013-11-19 16:10:00,
2013-11-19 11:12:00,46.2,9.4,26.69,NW,307,0.0,0.0,22,0.00,CLR,,0.00,WeatherDisplay:10.37,2013-11-19 16:12:00,
2013-11-19 11:13:00,46.0,9.2,26.69,South,174,0.0,0.0,22,0.00,CLR,,0.00,WeatherDisplay:10.37,2013-11-19 16:13:00,
2013-11-19 11:15:00,46.5,9.7,0.00,NW,322,0.0,3.0,22,0.00,CLR,,0.00,WeatherDisplay:10.37,2013-11-19 16:15:00,
2013-11-19 11:16:00,46.8,9.9,26.69,ESE,105,0.0,0.0,22,0.00,CLR,,0.00,WeatherDisplay:10.37,2013-11-19 16:16:00,
2013-11-19 11:18:00,47.1,10.2,26.69,North,9,2.3,0.0,22,0.00,CLR,,0.00,WeatherDisplay:10.37,2013-11-19 16:18:00,
2013-11-19 11:19:00,46.9,10.0,26.69,NE,46,2.3,0.0,22,0.00,CLR,,0.00,WeatherDisplay:10.37,2013-11-19 16:19:00,
2013-11-19 11:20:00,47.7,10.6,26.69,NNE,23,0.0,0.0,22,0.00,CLR,,0.00,WeatherDisplay:10.37,2013-11-19 16:20:00,
2013-11-19 11:21:00,47.5,10.5,26.69,North,5,0.0,0.0,22,0.00,CLR,,0.00,WeatherDisplay:10.37,2013-11-19 16:21:00,
2013-11-19 11:23:00,48.0,10.9,26.69,NNE,24,0.0,0.0,22,0.00,CLR,,0.00,WeatherDisplay:10.37,2013-11-19 16:23:00,
2013-11-19 11:24:00,48.6,10.3,26.69,ENE,71,0.0,0.0,21,0.00,CLR,,0.00,WeatherDisplay:10.37,2013-11-19 16:24:00,
2013-11-19 11:25:00,50.2,11.7,26.69,ESE,109,0.0,0.0,21,0.00,CLR,,0.00,WeatherDisplay:10.37,2013-11-19 16:25:00,
2013-11-19 11:26:00,50.4,11.8,26.69,North,11,0.0,0.0,21,0.00,CLR,,0.00,WeatherDisplay:10.37,2013-11-19 16:26:00,
2013-11-19 11:27:00,50.5,12.0,26.69,North,357,0.0,0.0,21,0.00,CLR,,0.00,WeatherDisplay:10.37,2013-11-19 16:27:00,
2013-11-19 11:28:00,52.5,13.6,26.69,North,357,0.0,0.0,21,0.00,CLR,,0.00,WeatherDisplay:10.37,2013-11-19 16:28:00,
2013-11-19 11:30:00,51.3,12.6,26.69,NNE,16,3.5,0.0,21,0.00,CLR,,0.00,WeatherDisplay:10.37,2013-11-19 16:30:00,
2013-11-19 11:31:00,53.1,14.1,26.69,NNE,16,0.0,0.0,21,0.00,CLR,,0.00,WeatherDisplay:10.37,2013-11-19 16:31:00,
2013-11-19 11:34:00,52.7,13.8,26.69,NNE,16,0.0,0.0,21,0.00,CLR,,0.00,WeatherDisplay:10.37,2013-11-19 16:34:00,
2013-11-19 11:35:00,52.1,13.3,0.00,NNE,17,0.0,0.0,21,0.00,CLR,,0.00,WeatherDisplay:10.37,2013-11-19 16:35:00,
2013-11-19 11:36:00,50.9,12.3,26.69,NNE,16,0.0,0.0,21,0.00,CLR,,0.00,WeatherDisplay:10.37,2013-11-19 16:36:00,
2013-11-19 11:38:00,49.8,11.4,26.69,NNE,16,0.0,0.0,21,0.00,CLR,,0.00,WeatherDisplay:10.37,2013-11-19 16:38:00,
2013-11-19 11:40:00,49.6,11.2,0.00,NNE,16,0.0,0.0,21,0.00,CLR,,0.00,WeatherDisplay:10.37,2013-11-19 16:40:00,
2013-11-19 11:41:00,49.3,10.9,26.69,NNE,16,0.0,0.0,21,0.00,CLR,,0.00,WeatherDisplay:10.37,2013-11-19 16:41:00,
2013-11-19 11:43:00,48.2,10.0,26.69,NNE,16,0.0,0.0,21,0.00,CLR,,0.00,WeatherDisplay:10.37,2013-11-19 16:43:00,
2013-11-19 11:45:00,48.3,10.1,0.00,NNE,16,0.0,0.0,21,0.00,CLR,,0.00,WeatherDisplay:10.37,2013-11-19 16:45:00,
2013-11-19 11:46:00,48.2,10.0,26.69,NNE,16,0.0,0.0,21,0.00,CLR,,0.00,WeatherDisplay:10.37,2013-11-19 16:46:00,
2013-11-19 11:48:00,47.7,10.6,26.69,NNE,16,0.0,0.0,22,0.00,CLR,,0.00,WeatherDisplay:10.37,2013-11-19 16:48:00,
2013-11-19 11:49:00,47.8,10.8,26.69,NNE,16,0.0,0.0,22,0.00,CLR,,0.00,WeatherDisplay:10.37,2013-11-19 16:49:00,
2013-11-19 11:50:00,47.9,10.8,0.00,NNE,16,0.0,0.0,22,0.00,CLR,,0.00,WeatherDisplay:10.37,2013-11-19 16:50:00,
2013-11-19 11:51:00,48.2,10.0,26.69,NNE,16,0.0,0.0,21,0.00,CLR,,0.00,WeatherDisplay:10.37,2013-11-19 16:51:00,
2013-11-19 11:55:00,47.3,10.3,0.00,NNE,16,0.0,0.0,22,0.00,CLR,,0.00,WeatherDisplay:10.37,2013-11-19 16:55:00,
2013-11-19 11:56:00,46.8,9.9,26.69,NNE,16,0.0,0.0,22,0.00,CLR,,0.00,WeatherDisplay:10.37,2013-11-19 16:56:00,
2013-11-19 11:57:00,46.6,9.7,26.69,NNE,16,0.0,0.0,22,0.00,CLR,,0.00,WeatherDisplay:10.37,2013-11-19 16:57:00,
2013-11-19 11:59:00,46.0,9.2,26.69,NNE,16,0.0,0.0,22,0.00,CLR,,0.00,WeatherDisplay:10.37,2013-11-19 16:59:00,
2013-11-19 12:00:00,46.0,9.2,0.00,NNE,16,0.0,0.0,22,0.00,CLR,,0.00,WeatherDisplay:10.37,2013-11-19 17:00:00,
2013-11-19 12:01:00,45.1,8.5,26.69,NNE,16,0.0,0.0,22,0.00,CLR,,0.00,WeatherDisplay:10.37,2013-11-19 17:01:00,
2013-11-19 12:03:00,44.2,8.7,26.69,NNE,16,0.0,0.0,23,0.00,CLR,,0.00,WeatherDisplay:10.37,2013-11-19 17:03:00,
2013-11-19 12:04:00,44.1,8.6,26.69,NNE,16,0.0,0.0,23,0.00,CLR,,0.00,WeatherDisplay:10.37,2013-11-19 17:04:00,
2013-11-19 12:05:00,43.7,8.3,26.69,NNE,16,0.0,0.0,23,0.00,CLR,,0.00,WeatherDisplay:10.37,2013-11-19 17:05:00,
2013-11-19 12:08:00,43.3,8.0,26.69,NNE,16,0.0,0.0,23,0.00,CLR,,0.00,WeatherDisplay:10.37,2013-11-19 17:08:00,
2013-11-19 12:09:00,43.5,8.1,26.69,NNE,16,0.0,0.0,23,0.00,CLR,,0.00,WeatherDisplay:10.37,2013-11-19 17:09:00,
2013-11-19 12:10:00,43.5,8.1,0.00,NNE,16,0.0,0.0,23,0.00,CLR,,0.00,WeatherDisplay:10.37,2013-11-19 17:10:00,
2013-11-19 12:12:00,43.5,8.1,26.69,NNE,16,0.0,0.0,23,0.00,CLR,,0.00,WeatherDisplay:10.37,2013-11-19 17:12:00,
2013-11-19 12:13:00,43.5,8.1,26.69,NNE,16,0.0,0.0,23,0.00,CLR,,0.00,WeatherDisplay:10.37,2013-11-19 17:13:00,
2013-11-19 12:14:00,43.5,8.1,26.69,NNE,16,0.0,0.0,23,0.00,CLR,,0.00,WeatherDisplay:10.37,2013-11-19 17:14:00,
2013-11-19 12:16:00,43.7,8.3,26.69,NNE,16,0.0,0.0,23,0.00,CLR,,0.00,WeatherDisplay:10.37,2013-11-19 17:16:00,
2013-11-19 12:17:00,43.5,8.1,26.69,NNE,16,0.0,0.0,23,0.00,CLR,,0.00,WeatherDisplay:10.37,2013-11-19 17:17:00,
2013-11-19 12:19:00,43.3,8.0,26.69,NNE,16,0.0,0.0,23,0.00,CLR,,0.00,WeatherDisplay:10.37,2013-11-19 17:19:00,
2013-11-19 12:20:00,43.3,8.0,0.00,NNE,16,0.0,0.0,23,0.00,CLR,,0.00,WeatherDisplay:10.37,2013-11-19 17:20:00,
2013-11-19 12:21:00,43.0,7.6,26.69,NNE,16,0.0,0.0,23,0.00,CLR,,0.00,WeatherDisplay:10.37,2013-11-19 17:21:00,
2013-11-19 12:22:00,42.6,7.3,26.69,NNE,16,0.0,0.0,23,0.00,CLR,,0.00,WeatherDisplay:10.37,2013-11-19 17:22:00,
2013-11-19 12:25:00,42.1,6.9,26.69,NNE,16,0.0,0.0,23,0.00,CLR,,0.00,WeatherDisplay:10.37,2013-11-19 17:25:00,
2013-11-19 12:27:00,41.9,6.7,26.69,NNE,16,0.0,0.0,23,0.00,CLR,,0.00,WeatherDisplay:10.37,2013-11-19 17:27:00,
2013-11-19 12:28:00,41.7,6.6,26.69,NNE,16,0.0,0.0,23,0.00,CLR,,0.00,WeatherDisplay:10.37,2013-11-19 17:28:00,
2013-11-19 12:31:00,41.5,6.4,26.69,NNE,16,0.0,0.0,23,0.00,CLR,,0.00,WeatherDisplay:10.37,2013-11-19 17:31:00,
2013-11-19 12:32:00,41.5,6.4,26.69,NNE,16,0.0,0.0,23,0.00,CLR,,0.00,WeatherDisplay:10.37,2013-11-19 17:32:00,
2013-11-19 12:33:00,41.7,6.6,26.69,NNE,16,0.0,0.0,23,0.00,CLR,,0.00,WeatherDisplay:10.37,2013-11-19 17:33:00,
2013-11-19 12:34:00,41.9,6.7,26.69,NNE,16,0.0,0.0,23,0.00,CLR,,0.00,WeatherDisplay:10.37,2013-11-19 17:34:00,
2013-11-19 12:35:00,42.3,7.0,26.69,NNE,16,0.0,0.0,23,0.00,CLR,,0.00,WeatherDisplay:10.37,2013-11-19 17:35:00,
2013-11-19 12:37:00,43.7,8.3,26.69,NNE,16,0.0,0.0,23,0.00,CLR,,0.00,WeatherDisplay:10.37,2013-11-19 17:37:00,
2013-11-19 12:39:00,44.6,8.0,26.69,NNE,16,0.0,0.0,22,0.00,CLR,,0.00,WeatherDisplay:10.37,2013-11-19 17:39:00,
2013-11-19 12:40:00,45.1,8.5,26.69,NNE,16,0.0,0.0,22,0.00,CLR,,0.00,WeatherDisplay:10.37,2013-11-19 17:40:00,
2013-11-19 12:43:00,49.3,10.9,26.69,NNE,16,0.0,0.0,21,0.00,CLR,,0.00,WeatherDisplay:10.37,2013-11-19 17:43:00,
2013-11-19 12:46:00,53.2,14.2,26.69,NNE,16,0.0,0.0,21,0.00,CLR,,0.00,WeatherDisplay:10.37,2013-11-19 17:46:00,
2013-11-19 12:48:00,54.7,14.3,26.69,NNE,16,0.0,0.0,20,0.00,CLR,,0.00,WeatherDisplay:10.37,2013-11-19 17:48:00,
2013-11-19 12:49:00,55.6,15.1,26.69,NNE,16,0.0,0.0,20,0.00,CLR,,0.00,WeatherDisplay:10.37,2013-11-19 17:49:00,
2013-11-19 12:50:00,56.3,15.7,26.69,NNE,16,0.0,0.0,20,0.00,CLR,,0.00,WeatherDisplay:10.37,2013-11-19 17:50:00,
2013-11-19 12:51:00,55.2,14.8,26.69,NNE,16,0.0,0.0,20,0.00,CLR,,0.00,WeatherDisplay:10.37,2013-11-19 17:51:00,
2013-11-19 12:53:00,51.4,12.7,26.69,NNE,16,0.0,0.0,21,0.00,CLR,,0.00,WeatherDisplay:10.37,2013-11-19 17:53:00,
2013-11-19 12:54:00,50.5,12.0,26.69,NNE,16,0.0,0.0,21,0.00,CLR,,0.00,WeatherDisplay:10.37,2013-11-19 17:54:00,
2013-11-19 12:55:00,48.7,10.5,26.69,NNE,16,0.0,0.0,21,0.00,CLR,,0.00,WeatherDisplay:10.37,2013-11-19 17:55:00,
2013-11-19 12:57:00,48.7,10.5,26.69,NNE,16,0.0,0.0,21,0.00,CLR,,0.00,WeatherDisplay:10.37,2013-11-19 17:57:00,
2013-11-19 12:59:00,49.6,11.2,26.69,NNE,16,0.0,0.0,21,0.00,CLR,,0.00,WeatherDisplay:10.37,2013-11-19 17:59:00,
2013-11-19 13:00:00,49.6,11.2,0.00,NNE,16,0.0,0.0,21,0.00,CLR,,0.00,WeatherDisplay:10.37,2013-11-19 18:00:00,
2013-11-19 13:01:00,47.8,10.8,26.69,NNE,16,0.0,0.0,22,0.00,CLR,,0.00,WeatherDisplay:10.37,2013-11-19 18:01:00,
2013-11-19 13:03:00,46.8,9.9,26.69,NNE,16,0.0,0.0,22,0.00,CLR,,0.00,WeatherDisplay:10.37,2013-11-19 18:03:00,
2013-11-19 13:05:00,46.5,9.6,0.00,NNE,16,0.0,0.0,22,0.00,CLR,,0.00,WeatherDisplay:10.37,2013-11-19 18:05:00,
2013-11-19 13:08:00,43.7,8.3,26.69,NNE,16,0.0,0.0,23,0.00,CLR,,0.00,WeatherDisplay:10.37,2013-11-19 18:08:00,
2013-11-19 13:10:00,43.1,7.7,0.00,NNE,16,0.0,0.0,23,0.00,CLR,,0.00,WeatherDisplay:10.37,2013-11-19 18:10:00,
2013-11-19 13:11:00,42.6,7.3,26.69,NNE,16,0.0,0.0,23,0.00,CLR,,0.00,WeatherDisplay:10.37,2013-11-19 18:11:00,
2013-11-19 13:13:00,42.1,6.9,26.69,NNE,16,0.0,0.0,23,0.00,CLR,,0.00,WeatherDisplay:10.37,2013-11-19 18:13:00,
2013-11-19 13:14:00,42.1,6.9,26.69,NNE,16,0.0,0.0,23,0.00,CLR,,0.00,WeatherDisplay:10.37,2013-11-19 18:14:00,
2013-11-19 13:15:00,42.1,6.9,26.69,NNE,16,0.0,0.0,23,0.00,CLR,,0.00,WeatherDisplay:10.37,2013-11-19 18:15:00,
2013-11-19 13:17:00,42.1,6.9,26.69,NNE,16,0.0,0.0,23,0.00,CLR,,0.00,WeatherDisplay:10.37,2013-11-19 18:17:00,
2013-11-19 13:20:00,42.2,7.0,0.00,NNE,16,0.0,0.0,23,0.00,CLR,,0.00,WeatherDisplay:10.37,2013-11-19 18:20:00,
2013-11-19 13:21:00,41.9,6.7,26.69,NNE,16,0.0,0.0,23,0.00,CLR,,0.00,WeatherDisplay:10.37,2013-11-19 18:21:00,
2013-11-19 13:23:00,41.5,6.4,26.69,NNE,16,0.0,0.0,23,0.00,CLR,,0.00,WeatherDisplay:10.37,2013-11-19 18:23:00,
2013-11-19 13:24:00,41.2,6.1,26.69,NNE,16,0.0,0.0,23,0.00,CLR,,0.00,WeatherDisplay:10.37,2013-11-19 18:24:00,
2013-11-19 13:25:00,41.4,6.3,26.69,NNE,16,0.0,0.0,23,0.00,CLR,,0.00,WeatherDisplay:10.37,2013-11-19 18:25:00,
2013-11-19 13:26:00,41.4,6.3,26.69,NNE,16,0.0,0.0,23,0.00,CLR,,0.00,WeatherDisplay:10.37,2013-11-19 18:26:00,
2013-11-19 13:27:00,41.4,6.3,26.69,NNE,16,0.0,0.0,23,0.00,CLR,,0.00,WeatherDisplay:10.37,2013-11-19 18:27:00,
2013-11-19 13:30:00,41.5,6.4,26.69,NNE,16,0.0,0.0,23,0.00,CLR,,0.00,WeatherDisplay:10.37,2013-11-19 18:30:00,
2013-11-19 13:32:00,41.4,6.3,26.69,NNE,16,0.0,0.0,23,0.00,CLR,,0.00,WeatherDisplay:10.37,2013-11-19 18:32:00,
2013-11-19 13:33:00,41.4,6.3,26.69,NNE,16,0.0,0.0,23,0.00,CLR,,0.00,WeatherDisplay:10.37,2013-11-19 18:33:00,
2013-11-19 13:34:00,41.4,6.3,26.69,NNE,16,0.0,0.0,23,0.00,CLR,,0.00,WeatherDisplay:10.37,2013-11-19 18:34:00,
2013-11-19 13:35:00,41.4,6.3,0.00,NNE,16,0.0,0.0,23,0.00,CLR,,0.00,WeatherDisplay:10.37,2013-11-19 18:35:00,
2013-11-19 13:36:00,41.4,6.3,26.69,NNE,16,0.0,0.0,23,0.00,CLR,,0.00,WeatherDisplay:10.37,2013-11-19 18:36:00,
2013-11-19 13:37:00,41.2,6.1,26.69,NNE,16,0.0,0.0,23,0.00,CLR,,0.00,WeatherDisplay:10.37,2013-11-19 18:37:00,
2013-11-19 13:40:00,41.2,6.1,0.00,NNE,16,0.0,0.0,23,0.00,CLR,,0.00,WeatherDisplay:10.37,2013-11-19 18:40:00,
2013-11-19 13:41:00,41.2,6.1,26.69,NNE,16,0.0,0.0,23,0.00,CLR,,0.00,WeatherDisplay:10.37,2013-11-19 18:41:00,
2013-11-19 13:42:00,41.2,6.1,26.69,NNE,16,0.0,0.0,23,0.00,CLR,,0.00,WeatherDisplay:10.37,2013-11-19 18:42:00,
2013-11-19 13:44:00,41.2,6.1,26.69,NNE,16,0.0,0.0,23,0.00,CLR,,0.00,WeatherDisplay:10.37,2013-11-19 18:44:00,
2013-11-19 13:45:00,41.2,6.1,0.00,NNE,16,0.0,0.0,23,0.00,CLR,,0.00,WeatherDisplay:10.37,2013-11-19 18:45:00,
2013-11-19 13:46:00,41.2,6.1,26.69,NNE,16,0.0,0.0,23,0.00,CLR,,0.00,WeatherDisplay:10.37,2013-11-19 18:46:00,
2013-11-19 13:48:00,41.4,6.3,26.69,NNE,16,0.0,0.0,23,0.00,CLR,,0.00,WeatherDisplay:10.37,2013-11-19 18:48:00,
2013-11-19 13:50:00,41.5,6.4,26.69,NNE,16,0.0,0.0,23,0.00,CLR,,0.00,WeatherDisplay:10.37,2013-11-19 18:50:00,
2013-11-19 13:51:00,41.5,6.4,26.69,NNE,16,0.0,0.0,23,0.00,CLR,,0.00,WeatherDisplay:10.37,2013-11-19 18:51:00,
2013-11-19 13:52:00,41.5,6.4,26.69,NNE,16,0.0,0.0,23,0.00,CLR,,0.00,WeatherDisplay:10.37,2013-11-19 18:52:00,
2013-11-19 13:54:00,41.5,6.4,26.69,NNE,16,0.0,0.0,23,0.00,CLR,,0.00,WeatherDisplay:10.37,2013-11-19 18:54:00,
2013-11-19 13:55:00,41.5,6.4,26.69,NNE,16,0.0,0.0,23,0.00,CLR,,0.00,WeatherDisplay:10.37,2013-11-19 18:55:00,
2013-11-19 13:56:00,41.7,6.6,26.69,NNE,16,0.0,0.0,23,0.00,CLR,,0.00,WeatherDisplay:10.37,2013-11-19 18:56:00,
2013-11-19 13:57:00,41.7,6.6,26.69,NNE,16,0.0,0.0,23,0.00,CLR,,0.00,WeatherDisplay:10.37,2013-11-19 18:57:00,
2013-11-19 14:00:00,41.7,6.6,0.00,NNE,16,0.0,0.0,23,0.00,CLR,,0.00,WeatherDisplay:10.37,2013-11-19 19:00:00,
2013-11-19 14:02:00,41.9,6.7,26.69,NNE,16,0.0,0.0,23,0.00,CLR,,0.00,WeatherDisplay:10.37,2013-11-19 19:02:00,
2013-11-19 14:05:00,41.9,6.7,0.00,NNE,16,0.0,0.0,23,0.00,CLR,,0.00,WeatherDisplay:10.37,2013-11-19 19:05:00,
2013-11-19 14:08:00,41.5,6.4,26.69,NNE,16,0.0,0.0,23,0.00,CLR,,0.00,WeatherDisplay:10.37,2013-11-19 19:08:00,
2013-11-19 14:10:00,41.5,6.4,0.00,NNE,16,0.0,0.0,23,0.00,CLR,,0.00,WeatherDisplay:10.37,2013-11-19 19:10:00,
2013-11-19 14:13:00,41.5,6.4,26.69,NNE,16,0.0,0.0,23,0.00,CLR,,0.00,WeatherDisplay:10.37,2013-11-19 19:13:00,
2013-11-19 14:15:00,41.7,6.6,26.69,NNE,16,0.0,0.0,23,0.00,CLR,,0.00,WeatherDisplay:10.37,2013-11-19 19:15:00,
2013-11-19 14:16:00,41.7,6.6,26.69,NNE,16,0.0,0.0,23,0.00,CLR,,0.00,WeatherDisplay:10.37,2013-11-19 19:16:00,
2013-11-19 14:17:00,41.7,6.6,26.69,NNE,16,0.0,0.0,23,0.00,CLR,,0.00,WeatherDisplay:10.37,2013-11-19 19:17:00,
2013-11-19 14:20:00,42.1,6.9,26.69,NNE,16,0.0,0.0,23,0.00,CLR,,0.00,WeatherDisplay:10.37,2013-11-19 19:20:00,
2013-11-19 14:21:00,42.1,6.9,26.69,NNE,16,0.0,0.0,23,0.00,CLR,,0.00,WeatherDisplay:10.37,2013-11-19 19:21:00,
2013-11-19 14:22:00,42.1,6.9,26.69,NNE,16,0.0,0.0,23,0.00,CLR,,0.00,WeatherDisplay:10.37,2013-11-19 19:22:00,
2013-11-19 14:23:00,42.1,6.9,26.69,NNE,16,0.0,0.0,23,0.00,CLR,,0.00,WeatherDisplay:10.37,2013-11-19 19:23:00,
2013-11-19 14:25:00,42.0,6.8,0.00,NNE,16,0.0,0.0,23,0.00,CLR,,0.00,WeatherDisplay:10.37,2013-11-19 19:25:00,
2013-11-19 14:26:00,41.7,6.6,26.69,NNE,16,0.0,0.0,23,0.00,CLR,,0.00,WeatherDisplay:10.37,2013-11-19 19:26:00,
2013-11-19 14:27:00,41.9,6.7,26.69,NNE,16,0.0,0.0,23,0.00,CLR,,0.00,WeatherDisplay:10.37,2013-11-19 19:27:00,
2013-11-19 14:29:00,41.7,6.6,26.69,NNE,16,0.0,0.0,23,0.00,CLR,,0.00,WeatherDisplay:10.37,2013-11-19 19:29:00,
2013-11-19 14:30:00,41.9,6.7,26.69,NNE,16,0.0,0.0,23,0.00,CLR,,0.00,WeatherDisplay:10.37,2013-11-19 19:30:00,
2013-11-19 14:31:00,41.9,6.7,26.69,NNE,16,0.0,0.0,23,0.00,CLR,,0.00,WeatherDisplay:10.37,2013-11-19 19:31:00,
2013-11-19 14:33:00,42.1,6.9,26.69,NNE,16,0.0,0.0,23,0.00,CLR,,0.00,WeatherDisplay:10.37,2013-11-19 19:33:00,
2013-11-19 14:34:00,42.1,6.9,26.69,NNE,16,0.0,0.0,23,0.00,CLR,,0.00,WeatherDisplay:10.37,2013-11-19 19:34:00,
2013-11-19 14:37:00,42.1,6.9,26.69,NNE,16,0.0,0.0,23,0.00,CLR,,0.00,WeatherDisplay:10.37,2013-11-19 19:37:00,
2013-11-19 14:38:00,42.3,7.0,26.69,NNE,16,0.0,0.0,23,0.00,CLR,,0.00,WeatherDisplay:10.37,2013-11-19 19:38:00,
2013-11-19 14:39:00,42.1,6.9,26.69,NNE,16,0.0,0.0,23,0.00,CLR,,0.00,WeatherDisplay:10.37,2013-11-19 19:39:00,
2013-11-19 14:40:00,42.1,6.9,26.69,NNE,16,0.0,0.0,23,0.00,CLR,,0.00,WeatherDisplay:10.37,2013-11-19 19:40:00,
2013-11-19 14:41:00,42.3,7.0,26.69,NNE,16,0.0,0.0,23,0.00,CLR,,0.00,WeatherDisplay:10.37,2013-11-19 19:41:00,
2013-11-19 14:43:00,42.4,7.2,26.69,NNE,16,0.0,0.0,23,0.00,CLR,,0.00,WeatherDisplay:10.37,2013-11-19 19:43:00,
2013-11-19 14:44:00,42.4,7.2,26.69,NNE,16,0.0,0.0,23,0.00,CLR,,0.00,WeatherDisplay:10.37,2013-11-19 19:44:00,
2013-11-19 14:46:00,42.8,7.5,26.69,NNE,16,0.0,0.0,23,0.00,CLR,,0.00,WeatherDisplay:10.37,2013-11-19 19:46:00,
2013-11-19 14:47:00,42.8,7.5,26.69,NNE,16,0.0,0.0,23,0.00,CLR,,0.00,WeatherDisplay:10.37,2013-11-19 19:47:00,
2013-11-19 14:48:00,42.8,7.5,26.69,NNE,16,0.0,0.0,23,0.00,CLR,,0.00,WeatherDisplay:10.37,2013-11-19 19:48:00,
2013-11-19 14:49:00,43.0,7.6,26.69,NNE,16,0.0,0.0,23,0.00,CLR,,0.00,WeatherDisplay:10.37,2013-11-19 19:49:00,
2013-11-19 14:50:00,43.0,7.6,0.00,NNE,16,0.0,0.0,23,0.00,CLR,,0.00,WeatherDisplay:10.37,2013-11-19 19:50:00,
2013-11-19 14:51:00,43.2,7.8,26.69,NNE,16,0.0,0.0,23,0.00,CLR,,0.00,WeatherDisplay:10.37,2013-11-19 19:51:00,
2013-11-19 14:54:00,43.5,8.1,26.69,NNE,16,0.0,0.0,23,0.00,CLR,,0.00,WeatherDisplay:10.37,2013-11-19 19:54:00,
2013-11-19 14:55:00,43.9,8.4,26.69,NNE,16,0.0,0.0,23,0.00,CLR,,0.00,WeatherDisplay:10.37,2013-11-19 19:55:00,
2013-11-19 14:56:00,43.9,8.4,26.69,NNE,16,0.0,0.0,23,0.00,CLR,,0.00,WeatherDisplay:10.37,2013-11-19 19:56:00,
2013-11-19 14:57:00,44.1,8.6,26.69,NNE,16,0.0,0.0,23,0.00,CLR,,0.00,WeatherDisplay:10.37,2013-11-19 19:57:00,
2013-11-19 15:01:00,44.4,8.9,26.69,NNE,16,0.0,0.0,23,0.00,CLR,,0.00,WeatherDisplay:10.37,2013-11-19 20:01:00,
2013-11-19 15:03:00,44.4,8.9,26.69,NNE,16,0.0,0.0,23,0.00,CLR,,0.00,WeatherDisplay:10.37,2013-11-19 20:03:00,
2013-11-19 15:04:00,44.4,8.9,26.69,NNE,16,0.0,0.0,23,0.00,CLR,,0.00,WeatherDisplay:10.37,2013-11-19 20:04:00,
2013-11-19 15:05:00,44.4,8.9,0.00,NNE,16,0.0,0.0,23,0.00,CLR,,0.00,WeatherDisplay:10.37,2013-11-19 20:05:00,
2013-11-19 15:07:00,44.2,8.7,26.69,NNE,16,0.0,0.0,23,0.00,CLR,,0.00,WeatherDisplay:10.37,2013-11-19 20:07:00,
2013-11-19 15:09:00,44.1,8.6,26.69,NNE,16,0.0,0.0,23,0.00,CLR,,0.00,WeatherDisplay:10.37,2013-11-19 20:09:00,
2013-11-19 15:10:00,44.1,8.6,26.69,NNE,16,0.0,0.0,23,0.00,CLR,,0.00,WeatherDisplay:10.37,2013-11-19 20:10:00,
2013-11-19 15:14:00,44.2,8.7,26.69,NNE,16,0.0,0.0,23,0.00,CLR,,0.00,WeatherDisplay:10.37,2013-11-19 20:14:00,
2013-11-19 15:15:00,44.2,8.7,0.00,NNE,16,0.0,0.0,23,0.00,CLR,,0.00,WeatherDisplay:10.37,2013-11-19 20:15:00,
2013-11-19 15:16:00,44.4,8.9,26.69,NNE,16,0.0,0.0,23,0.00,CLR,,0.00,WeatherDisplay:10.37,2013-11-19 20:16:00,
2013-11-19 15:17:00,44.4,8.9,26.69,NNE,16,0.0,0.0,23,0.00,CLR,,0.00,WeatherDisplay:10.37,2013-11-19 20:17:00,
2013-11-19 15:20:00,44.2,8.7,0.00,NNE,16,0.0,0.0,23,0.00,CLR,,0.00,WeatherDisplay:10.37,2013-11-19 20:20:00,
2013-11-19 15:21:00,44.2,8.7,26.69,NNE,16,0.0,0.0,23,0.00,CLR,,0.00,WeatherDisplay:10.37,2013-11-19 20:21:00,
2013-11-19 15:23:00,44.2,8.7,26.69,NNE,16,0.0,0.0,23,0.00,CLR,,0.00,WeatherDisplay:10.37,2013-11-19 20:23:00,
2013-11-19 15:24:00,44.1,8.6,26.69,NNE,16,0.0,0.0,23,0.00,CLR,,0.00,WeatherDisplay:10.37,2013-11-19 20:24:00,
2013-11-19 15:25:00,44.2,8.7,26.69,NNE,16,0.0,0.0,23,0.00,CLR,,0.00,WeatherDisplay:10.37,2013-11-19 20:25:00,
2013-11-19 15:28:00,44.2,8.7,26.69,NNE,16,0.0,0.0,23,0.00,CLR,,0.00,WeatherDisplay:10.37,2013-11-19 20:28:00,
2013-11-19 15:29:00,44.4,8.9,26.69,NNE,16,0.0,0.0,23,0.00,CLR,,0.00,WeatherDisplay:10.37,2013-11-19 20:29:00,
2013-11-19 15:31:00,43.7,8.3,26.69,NNE,16,0.0,0.0,23,0.00,CLR,,0.00,WeatherDisplay:10.37,2013-11-19 20:31:00,
2013-11-19 15:32:00,43.9,8.4,26.69,NNE,16,0.0,0.0,23,0.00,CLR,,0.00,WeatherDisplay:10.37,2013-11-19 20:32:00,
2013-11-19 15:33:00,43.9,8.4,26.69,NNE,16,0.0,0.0,23,0.00,CLR,,0.00,WeatherDisplay:10.37,2013-11-19 20:33:00,
2013-11-19 15:35:00,44.1,8.6,26.69,NNE,16,0.0,0.0,23,0.00,CLR,,0.00,WeatherDisplay:10.37,2013-11-19 20:35:00,
2013-11-19 15:37:00,43.5,8.1,26.69,NNE,16,0.0,0.0,23,0.00,CLR,,0.00,WeatherDisplay:10.37,2013-11-19 20:37:00,
2013-11-19 15:39:00,43.5,8.1,26.69,NNE,16,0.0,0.0,23,0.00,CLR,,0.00,WeatherDisplay:10.37,2013-11-19 20:39:00,
2013-11-19 15:40:00,43.7,8.3,26.69,NNE,16,0.0,0.0,23,0.00,CLR,,0.00,WeatherDisplay:10.37,2013-11-19 20:40:00,
2013-11-19 15:41:00,43.5,8.1,26.69,NNE,16,0.0,0.0,23,0.00,CLR,,0.00,WeatherDisplay:10.37,2013-11-19 20:41:00,
2013-11-19 15:42:00,43.7,8.3,26.69,NNE,16,0.0,0.0,23,0.00,CLR,,0.00,WeatherDisplay:10.37,2013-11-19 20:42:00,
2013-11-19 15:44:00,43.7,8.3,26.69,NNE,16,0.0,0.0,23,0.00,CLR,,0.00,WeatherDisplay:10.37,2013-11-19 20:44:00,
2013-11-19 15:45:00,43.7,8.3,26.69,NNE,16,0.0,0.0,23,0.00,CLR,,0.00,WeatherDisplay:10.37,2013-11-19 20:45:00,
2013-11-19 15:46:00,43.7,8.3,26.69,NNE,16,0.0,0.0,23,0.00,CLR,,0.00,WeatherDisplay:10.37,2013-11-19 20:46:00,
2013-11-19 15:47:00,43.7,8.3,26.69,NNE,16,0.0,0.0,23,0.00,CLR,,0.00,WeatherDisplay:10.37,2013-11-19 20:47:00,
2013-11-19 15:48:00,43.9,8.4,26.69,NNE,16,0.0,0.0,23,0.00,CLR,,0.00,WeatherDisplay:10.37,2013-11-19 20:48:00,
2013-11-19 15:49:00,43.9,8.4,26.69,NNE,16,0.0,0.0,23,0.00,CLR,,0.00,WeatherDisplay:10.37,2013-11-19 20:49:00,
2013-11-19 15:52:00,43.7,8.3,26.69,NNE,16,0.0,0.0,23,0.00,CLR,,0.00,WeatherDisplay:10.37,2013-11-19 20:52:00,
2013-11-19 15:53:00,43.5,8.1,26.69,NNE,16,0.0,0.0,23,0.00,CLR,,0.00,WeatherDisplay:10.37,2013-11-19 20:53:00,
2013-11-19 15:54:00,43.3,8.0,26.69,NNE,16,0.0,0.0,23,0.00,CLR,,0.00,WeatherDisplay:10.37,2013-11-19 20:54:00,
2013-11-19 15:57:00,42.8,7.5,26.69,NNE,16,0.0,0.0,23,0.00,CLR,,0.00,WeatherDisplay:10.37,2013-11-19 20:57:00,
2013-11-19 15:58:00,42.8,7.5,26.69,NNE,16,0.0,0.0,23,0.00,CLR,,0.00,WeatherDisplay:10.37,2013-11-19 20:58:00,
2013-11-19 15:59:00,42.8,7.5,26.69,NNE,16,0.0,0.0,23,0.00,CLR,,0.00,WeatherDisplay:10.37,2013-11-19 20:59:00,
2013-11-19 16:00:00,42.8,7.5,0.00,NNE,16,0.0,0.0,23,0.00,CLR,,0.00,WeatherDisplay:10.37,2013-11-19 21:00:00,
2013-11-19 16:01:00,42.8,7.5,26.69,NNE,16,0.0,0.0,23,0.00,CLR,,0.00,WeatherDisplay:10.37,2013-11-19 21:01:00,
2013-11-19 16:03:00,42.6,7.3,26.69,NNE,16,0.0,0.0,23,0.00,CLR,,0.00,WeatherDisplay:10.37,2013-11-19 21:03:00,
2013-11-19 16:05:00,42.6,7.3,0.00,NNE,16,0.0,0.0,23,0.00,CLR,,0.00,WeatherDisplay:10.37,2013-11-19 21:05:00,
2013-11-19 16:06:00,42.6,7.3,26.69,NNE,16,0.0,0.0,23,0.00,CLR,,0.00,WeatherDisplay:10.37,2013-11-19 21:06:00,
2013-11-19 16:07:00,42.4,7.2,26.69,NNE,16,0.0,0.0,23,0.00,CLR,,0.00,WeatherDisplay:10.37,2013-11-19 21:07:00,
2013-11-19 16:10:00,42.4,7.2,0.00,NNE,16,0.0,0.0,23,0.00,CLR,,0.00,WeatherDisplay:10.37,2013-11-19 21:10:00,
2013-11-19 16:11:00,42.3,7.0,26.69,NNE,16,0.0,0.0,23,0.00,CLR,,0.00,WeatherDisplay:10.37,2013-11-19 21:11:00,
2013-11-19 16:12:00,41.9,6.7,26.69,NNE,16,0.0,0.0,23,0.00,CLR,,0.00,WeatherDisplay:10.37,2013-11-19 21:12:00,
2013-11-19 16:13:00,41.9,6.7,26.69,NNE,16,0.0,0.0,23,0.00,CLR,,0.00,WeatherDisplay:10.37,2013-11-19 21:13:00,
2013-11-19 16:15:00,41.9,6.7,0.00,NNE,16,0.0,0.0,23,0.00,CLR,,0.00,WeatherDisplay:10.37,2013-11-19 21:15:00,
2013-11-19 16:16:00,41.5,6.4,26.69,NNE,16,0.0,0.0,23,0.00,CLR,,0.00,WeatherDisplay:10.37,2013-11-19 21:16:00,
2013-11-19 16:17:00,41.5,6.4,26.69,NNE,16,0.0,0.0,23,0.00,CLR,,0.00,WeatherDisplay:10.37,2013-11-19 21:17:00,
2013-11-19 16:18:00,41.5,6.4,26.69,NNE,16,0.0,0.0,23,0.00,CLR,,0.00,WeatherDisplay:10.37,2013-11-19 21:18:00,
2013-11-19 16:20:00,41.5,6.4,0.00,NNE,16,0.0,0.0,23,0.00,CLR,,0.00,WeatherDisplay:10.37,2013-11-19 21:20:00,
2013-11-19 16:23:00,41.2,6.1,26.69,NNE,16,0.0,0.0,23,0.00,CLR,,0.00,WeatherDisplay:10.37,2013-11-19 21:23:00,
2013-11-19 16:24:00,41.2,6.1,26.69,NNE,16,0.0,0.0,23,0.00,CLR,,0.00,WeatherDisplay:10.37,2013-11-19 21:24:00,
2013-11-19 16:25:00,41.0,6.0,26.69,NNE,16,0.0,0.0,23,0.00,CLR,,0.00,WeatherDisplay:10.37,2013-11-19 21:25:00,
2013-11-19 16:26:00,41.0,6.0,26.69,NNE,16,0.0,0.0,23,0.00,CLR,,0.00,WeatherDisplay:10.37,2013-11-19 21:26:00,
2013-11-19 16:27:00,41.0,6.0,26.69,NNE,16,0.0,0.0,23,0.00,CLR,,0.00,WeatherDisplay:10.37,2013-11-19 21:27:00,
2013-11-19 16:28:00,40.8,5.8,26.69,NNE,16,0.0,0.0,23,0.00,CLR,,0.00,WeatherDisplay:10.37,2013-11-19 21:28:00,
2013-11-19 16:30:00,40.6,5.7,26.69,NNE,16,0.0,0.0,23,0.00,CLR,,0.00,WeatherDisplay:10.37,2013-11-19 21:30:00,
2013-11-19 16:31:00,40.6,5.7,26.69,NNE,16,0.0,0.0,23,0.00,CLR,,0.00,WeatherDisplay:10.37,2013-11-19 21:31:00,
2013-11-19 16:33:00,40.6,5.7,26.69,NNE,16,0.0,0.0,23,0.00,CLR,,0.00,WeatherDisplay:10.37,2013-11-19 21:33:00,
2013-11-19 16:34:00,40.5,5.5,26.69,NNE,16,0.0,0.0,23,0.00,CLR,,0.00,WeatherDisplay:10.37,2013-11-19 21:34:00,
2013-11-19 16:36:00,40.3,5.4,26.69,NNE,16,0.0,0.0,23,0.00,CLR,,0.00,WeatherDisplay:10.37,2013-11-19 21:36:00,
2013-11-19 16:37:00,40.3,5.4,26.69,NNE,16,0.0,0.0,23,0.00,CLR,,0.00,WeatherDisplay:10.37,2013-11-19 21:37:00,
2013-11-19 16:39:00,40.1,5.2,26.69,NNE,16,0.0,0.0,23,0.00,CLR,,0.00,WeatherDisplay:10.37,2013-11-19 21:39:00,
2013-11-19 16:40:00,40.1,5.2,0.00,NNE,16,0.0,0.0,23,0.00,CLR,,0.00,WeatherDisplay:10.37,2013-11-19 21:40:00,
2013-11-19 16:42:00,39.9,5.0,26.69,NNE,16,0.0,0.0,23,0.00,CLR,,0.00,WeatherDisplay:10.37,2013-11-19 21:42:00,
2013-11-19 16:43:00,39.9,5.0,26.69,NNE,16,0.0,0.0,23,0.00,CLR,,0.00,WeatherDisplay:10.37,2013-11-19 21:43:00,
2013-11-19 16:45:00,39.9,5.0,0.00,NNE,16,0.0,0.0,23,0.00,CLR,,0.00,WeatherDisplay:10.37,2013-11-19 21:45:00,
2013-11-19 16:48:00,39.7,4.9,26.69,NNE,16,0.0,0.0,23,0.00,CLR,,0.00,WeatherDisplay:10.37,2013-11-19 21:48:00,
2013-11-19 16:49:00,39.6,4.7,26.69,ENE,64,0.0,0.0,23,0.00,CLR,,0.00,WeatherDisplay:10.37,2013-11-19 21:49:00,
2013-11-19 16:50:00,39.7,4.9,0.00,NNE,17,0.0,0.0,23,0.00,CLR,,0.00,WeatherDisplay:10.37,2013-11-19 21:50:00,
2013-11-19 16:51:00,39.6,4.7,26.69,ENE,64,0.0,0.0,23,0.00,CLR,,0.00,WeatherDisplay:10.37,2013-11-19 21:51:00,
2013-11-19 16:54:00,39.4,4.6,26.69,ENE,69,0.0,0.0,23,0.00,CLR,,0.00,WeatherDisplay:10.37,2013-11-19 21:54:00,
2013-11-19 16:55:00,39.4,4.6,26.69,ENE,69,0.0,0.0,23,0.00,CLR,,0.00,WeatherDisplay:10.37,2013-11-19 21:55:00,
2013-11-19 16:56:00,39.2,4.4,26.69,ENE,69,0.0,0.0,23,0.00,CLR,,0.00,WeatherDisplay:10.37,2013-11-19 21:56:00,
2013-11-19 16:58:00,39.2,4.4,26.69,ENE,69,0.0,0.0,23,0.00,CLR,,0.00,WeatherDisplay:10.37,2013-11-19 21:58:00,
2013-11-19 16:59:00,39.2,4.4,26.69,ENE,69,0.0,0.0,23,0.00,CLR,,0.00,WeatherDisplay:10.37,2013-11-19 21:59:00,
2013-11-19 17:00:00,39.2,4.4,26.69,ENE,69,0.0,0.0,23,0.00,CLR,,0.00,WeatherDisplay:10.37,2013-11-19 22:00:00,
2013-11-19 17:02:00,39.0,5.2,26.69,ENE,69,0.0,0.0,24,0.00,CLR,,0.00,WeatherDisplay:10.37,2013-11-19 22:02:00,
2013-11-19 17:04:00,39.0,5.2,26.69,ENE,69,0.0,0.0,24,0.00,CLR,,0.00,WeatherDisplay:10.37,2013-11-19 22:04:00,
2013-11-19 17:05:00,39.0,5.2,26.69,ENE,69,0.0,0.0,24,0.00,CLR,,0.00,WeatherDisplay:10.37,2013-11-19 22:05:00,
2013-11-19 17:06:00,38.8,5.1,26.69,ENE,69,0.0,0.0,24,0.00,CLR,,0.00,WeatherDisplay:10.37,2013-11-19 22:06:00,
2013-11-19 17:07:00,38.8,5.1,26.69,ENE,69,0.0,0.0,24,0.00,CLR,,0.00,WeatherDisplay:10.37,2013-11-19 22:07:00,
2013-11-19 17:11:00,38.5,4.8,26.69,ENE,69,0.0,0.0,24,0.00,CLR,,0.00,WeatherDisplay:10.37,2013-11-19 22:11:00,
2013-11-19 17:12:00,38.5,4.8,26.69,ENE,69,0.0,0.0,24,0.00,CLR,,0.00,WeatherDisplay:10.37,2013-11-19 22:12:00,
2013-11-19 17:13:00,38.5,4.8,26.69,ENE,69,0.0,0.0,24,0.00,CLR,,0.00,WeatherDisplay:10.37,2013-11-19 22:13:00,
2013-11-19 17:17:00,38.1,4.4,26.69,ENE,69,0.0,0.0,24,0.00,CLR,,0.00,WeatherDisplay:10.37,2013-11-19 22:17:00,
2013-11-19 17:19:00,37.9,4.3,26.69,ENE,69,0.0,0.0,24,0.00,CLR,,0.00,WeatherDisplay:10.37,2013-11-19 22:19:00,
2013-11-19 17:20:00,37.8,4.1,26.69,ENE,69,0.0,0.0,24,0.00,CLR,,0.00,WeatherDisplay:10.37,2013-11-19 22:20:00,
2013-11-19 17:21:00,37.8,4.1,26.69,ENE,69,0.0,0.0,24,0.00,CLR,,0.00,WeatherDisplay:10.37,2013-11-19 22:21:00,
2013-11-19 17:22:00,37.6,4.0,26.69,ENE,69,0.0,0.0,24,0.00,CLR,,0.00,WeatherDisplay:10.37,2013-11-19 22:22:00,
2013-11-19 17:24:00,37.4,3.8,26.69,ENE,69,0.0,0.0,24,0.00,CLR,,0.00,WeatherDisplay:10.37,2013-11-19 22:24:00,
2013-11-19 17:26:00,37.0,3.5,26.69,ENE,69,0.0,0.0,24,0.00,CLR,,0.00,WeatherDisplay:10.37,2013-11-19 22:26:00,
2013-11-19 17:27:00,37.0,3.5,26.69,ENE,69,0.0,0.0,24,0.00,CLR,,0.00,WeatherDisplay:10.37,2013-11-19 22:27:00,
2013-11-19 17:29:00,36.7,3.2,26.69,ENE,69,0.0,0.0,24,0.00,CLR,,0.00,WeatherDisplay:10.37,2013-11-19 22:29:00,
2013-11-19 17:30:00,36.7,3.2,26.69,ENE,69,0.0,0.0,24,0.00,CLR,,0.00,WeatherDisplay:10.37,2013-11-19 22:30:00,
2013-11-19 17:31:00,36.3,2.9,26.69,ENE,69,0.0,0.0,24,0.00,CLR,,0.00,WeatherDisplay:10.37,2013-11-19 22:31:00,
2013-11-19 17:33:00,36.1,2.8,26.69,ENE,69,0.0,0.0,24,0.00,CLR,,0.00,WeatherDisplay:10.37,2013-11-19 22:33:00,
2013-11-19 17:34:00,36.1,2.8,26.69,ENE,69,0.0,0.0,24,0.00,CLR,,0.00,WeatherDisplay:10.37,2013-11-19 22:34:00,
2013-11-19 17:35:00,36.1,2.8,0.00,ENE,69,0.0,0.0,24,0.00,CLR,,0.00,WeatherDisplay:10.37,2013-11-19 22:35:00,
2013-11-19 17:36:00,35.8,2.4,26.69,ENE,69,0.0,0.0,24,0.00,CLR,,0.00,WeatherDisplay:10.37,2013-11-19 22:36:00,
2013-11-19 17:40:00,35.6,2.3,0.00,ENE,69,0.0,0.0,24,0.00,CLR,,0.00,WeatherDisplay:10.37,2013-11-19 22:40:00,
2013-11-19 17:41:00,35.4,3.0,26.69,ENE,69,0.0,0.0,25,0.00,CLR,,0.00,WeatherDisplay:10.37,2013-11-19 22:41:00,
2013-11-19 17:42:00,35.4,3.0,26.69,ENE,69,0.0,0.0,25,0.00,CLR,,0.00,WeatherDisplay:10.37,2013-11-19 22:42:00,
2013-11-19 17:44:00,35.2,2.9,26.69,ENE,69,0.0,0.0,25,0.00,CLR,,0.00,WeatherDisplay:10.37,2013-11-19 22:44:00,
2013-11-19 17:45:00,35.1,2.7,26.69,ENE,69,0.0,0.0,25,0.00,CLR,,0.00,WeatherDisplay:10.37,2013-11-19 22:45:00,
2013-11-19 17:47:00,35.1,2.7,26.69,ENE,69,0.0,0.0,25,0.00,CLR,,0.00,WeatherDisplay:10.37,2013-11-19 22:47:00,
2013-11-19 17:48:00,34.9,2.6,26.69,ENE,69,0.0,0.0,25,0.00,CLR,,0.00,WeatherDisplay:10.37,2013-11-19 22:48:00,
2013-11-19 17:50:00,34.9,2.6,0.00,ENE,69,0.0,0.0,25,0.00,CLR,,0.00,WeatherDisplay:10.37,2013-11-19 22:50:00,
2013-11-19 17:52:00,34.5,2.2,26.69,ENE,69,0.0,0.0,25,0.00,CLR,,0.00,WeatherDisplay:10.37,2013-11-19 22:52:00,
2013-11-19 17:53:00,34.5,2.2,26.69,ENE,69,0.0,0.0,25,0.00,CLR,,0.00,WeatherDisplay:10.37,2013-11-19 22:53:00,
2013-11-19 17:54:00,34.5,2.2,26.69,ENE,69,0.0,0.0,25,0.00,CLR,,0.00,WeatherDisplay:10.37,2013-11-19 22:54:00,
2013-11-19 17:55:00,34.5,2.2,26.69,ENE,69,0.0,0.0,25,0.00,CLR,,0.00,WeatherDisplay:10.37,2013-11-19 22:55:00,
2013-11-19 17:56:00,34.3,2.1,26.69,ENE,69,0.0,0.0,25,0.00,CLR,,0.00,WeatherDisplay:10.37,2013-11-19 22:56:00,
2013-11-19 17:58:00,34.3,2.1,26.69,ENE,69,0.0,0.0,25,0.00,CLR,,0.00,WeatherDisplay:10.37,2013-11-19 22:58:00,
2013-11-19 17:59:00,34.3,2.1,26.69,ENE,69,0.0,0.0,25,0.00,CLR,,0.00,WeatherDisplay:10.37,2013-11-19 22:59:00,
2013-11-19 18:01:00,34.2,1.9,26.69,ENE,69,0.0,0.0,25,0.00,CLR,,0.00,WeatherDisplay:10.37,2013-11-19 23:01:00,
2013-11-19 18:02:00,34.0,1.8,26.69,ENE,69,0.0,0.0,25,0.00,CLR,,0.00,WeatherDisplay:10.37,2013-11-19 23:02:00,
2013-11-19 18:03:00,34.0,1.8,26.69,ENE,69,0.0,0.0,25,0.00,CLR,,0.00,WeatherDisplay:10.37,2013-11-19 23:03:00,
2013-11-19 18:04:00,34.0,1.8,26.69,ENE,69,0.0,0.0,25,0.00,CLR,,0.00,WeatherDisplay:10.37,2013-11-19 23:04:00,
2013-11-19 18:07:00,33.8,1.6,26.69,ENE,69,0.0,0.0,25,0.00,CLR,,0.00,WeatherDisplay:10.37,2013-11-19 23:07:00,
2013-11-19 18:08:00,33.8,1.6,26.69,ENE,69,0.0,0.0,25,0.00,CLR,,0.00,WeatherDisplay:10.37,2013-11-19 23:08:00,
2013-11-19 18:10:00,33.6,1.5,26.69,ENE,69,0.0,0.0,25,0.00,CLR,,0.00,WeatherDisplay:10.37,2013-11-19 23:10:00,
2013-11-19 18:12:00,33.6,1.5,26.69,ENE,69,0.0,0.0,25,0.00,CLR,,0.00,WeatherDisplay:10.37,2013-11-19 23:12:00,
2013-11-19 18:13:00,33.4,1.3,26.69,ENE,69,0.0,0.0,25,0.00,CLR,,0.00,WeatherDisplay:10.37,2013-11-19 23:13:00,
2013-11-19 18:14:00,33.3,1.2,26.69,ENE,69,0.0,0.0,25,0.00,CLR,,0.00,WeatherDisplay:10.37,2013-11-19 23:14:00,
2013-11-19 18:15:00,33.3,1.2,26.69,ENE,69,0.0,0.0,25,0.00,CLR,,0.00,WeatherDisplay:10.37,2013-11-19 23:15:00,
2013-11-19 18:16:00,33.3,1.2,26.69,ENE,69,0.0,0.0,25,0.00,CLR,,0.00,WeatherDisplay:10.37,2013-11-19 23:16:00,
2013-11-19 18:18:00,33.1,1.0,26.69,ENE,69,0.0,0.0,25,0.00,CLR,,0.00,WeatherDisplay:10.37,2013-11-19 23:18:00,
2013-11-19 18:20:00,33.1,1.0,0.00,ENE,69,0.0,0.0,25,0.00,CLR,,0.00,WeatherDisplay:10.37,2013-11-19 23:20:00,
2013-11-19 18:22:00,33.1,1.0,26.69,ENE,69,0.0,0.0,25,0.00,CLR,,0.00,WeatherDisplay:10.37,2013-11-19 23:22:00,
2013-11-19 18:24:00,32.9,0.9,26.69,ENE,69,0.0,0.0,25,0.00,CLR,,0.00,WeatherDisplay:10.37,2013-11-19 23:24:00,
2013-11-19 18:25:00,32.9,0.9,26.69,ENE,69,0.0,0.0,25,0.00,CLR,,0.00,WeatherDisplay:10.37,2013-11-19 23:25:00,
2013-11-19 18:29:00,32.5,0.5,26.69,ENE,69,0.0,0.0,25,0.00,CLR,,0.00,WeatherDisplay:10.37,2013-11-19 23:29:00,
2013-11-19 18:30:00,32.5,0.5,26.69,ENE,69,0.0,0.0,25,0.00,CLR,,0.00,WeatherDisplay:10.37,2013-11-19 23:30:00,
2013-11-19 18:31:00,32.5,3.0,26.69,ENE,69,0.0,0.0,28,0.00,CLR,,0.00,WeatherDisplay:10.37,2013-11-19 23:31:00,
2013-11-19 18:32:00,32.5,3.0,26.69,ENE,69,0.0,0.0,28,0.00,CLR,,0.00,WeatherDisplay:10.37,2013-11-19 23:32:00,
2013-11-19 18:33:00,32.5,3.0,26.69,ENE,69,0.0,0.0,28,0.00,CLR,,0.00,WeatherDisplay:10.37,2013-11-19 23:33:00,
2013-11-19 18:35:00,32.4,2.9,0.00,ENE,69,0.0,0.0,28,0.00,CLR,,0.00,WeatherDisplay:10.37,2013-11-19 23:35:00,
2013-11-19 18:36:00,32.4,2.8,26.69,ENE,69,0.0,0.0,28,0.00,CLR,,0.00,WeatherDisplay:10.37,2013-11-19 23:36:00,
2013-11-19 18:37:00,32.2,2.7,26.69,ENE,69,0.0,0.0,28,0.00,CLR,,0.00,WeatherDisplay:10.37,2013-11-19 23:37:00,
2013-11-19 18:38:00,32.2,2.7,26.69,ENE,69,0.0,0.0,28,0.00,CLR,,0.00,WeatherDisplay:10.37,2013-11-19 23:38:00,
2013-11-19 18:40:00,32.2,2.7,0.00,ENE,69,0.0,0.0,28,0.00,CLR,,0.00,WeatherDisplay:10.37,2013-11-19 23:40:00,
2013-11-19 18:41:00,32.2,2.7,26.69,ENE,69,0.0,0.0,28,0.00,CLR,,0.00,WeatherDisplay:10.37,2013-11-19 23:41:00,
2013-11-19 18:42:00,32.2,2.7,26.69,ENE,69,0.0,0.0,28,0.00,CLR,,0.00,WeatherDisplay:10.37,2013-11-19 23:42:00,
2013-11-19 18:45:00,32.0,2.5,26.69,ENE,69,0.0,0.0,28,0.00,CLR,,0.00,WeatherDisplay:10.37,2013-11-19 23:45:00,
2013-11-19 18:46:00,32.0,2.5,26.69,ENE,69,0.0,0.0,28,0.00,CLR,,0.00,WeatherDisplay:10.37,2013-11-19 23:46:00,
2013-11-19 18:47:00,31.8,2.4,26.69,ENE,69,0.0,0.0,28,0.00,CLR,,0.00,WeatherDisplay:10.37,2013-11-19 23:47:00,
2013-11-19 18:48:00,31.8,2.4,26.69,ENE,69,0.0,0.0,28,0.00,CLR,,0.00,WeatherDisplay:10.37,2013-11-19 23:48:00,
2013-11-19 18:50:00,31.6,2.2,26.69,ENE,69,0.0,0.0,28,0.00,CLR,,0.00,WeatherDisplay:10.37,2013-11-19 23:50:00,
2013-11-19 18:51:00,31.6,2.2,26.69,ENE,69,0.0,0.0,28,0.00,CLR,,0.00,WeatherDisplay:10.37,2013-11-19 23:51:00,
2013-11-19 18:52:00,31.6,2.2,26.69,ENE,69,0.0,0.0,28,0.00,CLR,,0.00,WeatherDisplay:10.37,2013-11-19 23:52:00,
2013-11-19 18:53:00,31.6,2.2,26.69,ENE,69,0.0,0.0,28,0.00,CLR,,0.00,WeatherDisplay:10.37,2013-11-19 23:53:00,
2013-11-19 18:54:00,31.5,2.0,26.69,ENE,69,0.0,0.0,28,0.00,CLR,,0.00,WeatherDisplay:10.37,2013-11-19 23:54:00,
2013-11-19 18:56:00,31.5,2.0,26.69,ENE,69,0.0,0.0,28,0.00,CLR,,0.00,WeatherDisplay:10.37,2013-11-19 23:56:00,
2013-11-19 18:57:00,31.5,2.0,26.69,ENE,69,0.0,0.0,28,0.00,CLR,,0.00,WeatherDisplay:10.37,2013-11-19 23:57:00,
2013-11-19 18:59:00,31.3,1.9,26.69,ENE,69,0.0,0.0,28,0.00,CLR,,0.00,WeatherDisplay:10.37,2013-11-19 23:59:00,
2013-11-19 19:01:00,31.3,1.9,26.69,ENE,69,0.0,0.0,28,0.00,CLR,,0.00,WeatherDisplay:10.37,2013-11-20 00:01:00,
2013-11-19 19:02:00,31.3,1.9,26.69,ENE,69,0.0,0.0,28,0.00,CLR,,0.00,WeatherDisplay:10.37,2013-11-20 00:02:00,
2013-11-19 19:04:00,31.1,1.7,26.69,ENE,69,0.0,0.0,28,0.00,CLR,,0.00,WeatherDisplay:10.37,2013-11-20 00:04:00,
2013-11-19 19:06:00,31.1,1.7,26.69,ENE,69,0.0,0.0,28,0.00,CLR,,0.00,WeatherDisplay:10.37,2013-11-20 00:06:00,
2013-11-19 19:07:00,31.1,1.7,26.69,ENE,69,0.0,0.0,28,0.00,CLR,,0.00,WeatherDisplay:10.37,2013-11-20 00:07:00,
2013-11-19 19:08:00,31.1,1.7,26.69,ENE,69,0.0,0.0,28,0.00,CLR,,0.00,WeatherDisplay:10.37,2013-11-20 00:08:00,
2013-11-19 19:09:00,30.9,1.6,26.69,ENE,69,0.0,0.0,28,0.00,CLR,,0.00,WeatherDisplay:10.37,2013-11-20 00:09:00,
2013-11-19 19:11:00,30.9,1.6,26.69,ENE,69,0.0,0.0,28,0.00,CLR,,0.00,WeatherDisplay:10.37,2013-11-20 00:11:00,
2013-11-19 19:12:00,30.7,1.4,26.69,ENE,69,0.0,0.0,28,0.00,CLR,,0.00,WeatherDisplay:10.37,2013-11-20 00:12:00,
2013-11-19 19:14:00,30.7,1.4,26.69,ENE,69,0.0,0.0,28,0.00,CLR,,0.00,WeatherDisplay:10.37,2013-11-20 00:14:00,
2013-11-19 19:16:00,30.7,1.4,26.69,ENE,69,0.0,0.0,28,0.00,CLR,,0.00,WeatherDisplay:10.37,2013-11-20 00:16:00,
2013-11-19 19:17:00,30.7,1.4,26.69,ENE,69,0.0,0.0,28,0.00,CLR,,0.00,WeatherDisplay:10.37,2013-11-20 00:17:00,
2013-11-19 19:18:00,30.7,2.9,26.69,ENE,69,0.0,0.0,30,0.00,CLR,,0.00,WeatherDisplay:10.37,2013-11-20 00:18:00,
2013-11-19 19:20:00,30.6,2.7,0.00,ENE,69,0.0,0.0,30,0.00,CLR,,0.00,WeatherDisplay:10.37,2013-11-20 00:20:00,
2013-11-19 19:21:00,30.6,2.7,26.69,ENE,69,0.0,0.0,30,0.00,CLR,,0.00,WeatherDisplay:10.37,2013-11-20 00:21:00,
2013-11-19 19:23:00,30.6,2.7,26.69,ENE,69,0.0,0.0,30,0.00,CLR,,0.00,WeatherDisplay:10.37,2013-11-20 00:23:00,
2013-11-19 19:24:00,30.6,2.7,26.69,ENE,69,0.0,0.0,30,0.00,CLR,,0.00,WeatherDisplay:10.37,2013-11-20 00:24:00,
2013-11-19 19:25:00,30.4,2.6,0.00,ENE,69,0.0,0.0,30,0.00,CLR,,0.00,WeatherDisplay:10.37,2013-11-20 00:25:00,
2013-11-19 19:27:00,30.4,2.6,26.69,ENE,69,0.0,0.0,30,0.00,CLR,,0.00,WeatherDisplay:10.37,2013-11-20 00:27:00,
2013-11-19 19:28:00,30.2,2.4,26.69,ENE,69,0.0,0.0,30,0.00,CLR,,0.00,WeatherDisplay:10.37,2013-11-20 00:28:00,
2013-11-19 19:29:00,30.2,3.1,26.69,ENE,69,0.0,0.0,31,0.00,CLR,,0.00,WeatherDisplay:10.37,2013-11-20 00:29:00,
2013-11-19 19:30:00,30.2,3.2,0.00,ENE,69,0.0,0.0,31,0.00,CLR,,0.00,WeatherDisplay:10.37,2013-11-20 00:30:00,
2013-11-19 19:32:00,30.2,2.4,26.69,ENE,69,0.0,0.0,30,0.00,CLR,,0.00,WeatherDisplay:10.37,2013-11-20 00:32:00,
2013-11-19 19:33:00,30.2,2.4,26.69,ENE,69,0.0,0.0,30,0.00,CLR,,0.00,WeatherDisplay:10.37,2013-11-20 00:33:00,
2013-11-19 19:35:00,30.2,2.4,26.69,ENE,69,0.0,0.0,30,0.00,CLR,,0.00,WeatherDisplay:10.37,2013-11-20 00:35:00,
2013-11-19 19:38:00,30.0,3.0,26.69,ENE,69,0.0,0.0,31,0.00,CLR,,0.00,WeatherDisplay:10.37,2013-11-20 00:38:00,
2013-11-19 19:39:00,30.0,3.0,26.69,ENE,69,0.0,0.0,31,0.00,CLR,,0.00,WeatherDisplay:10.37,2013-11-20 00:39:00,
2013-11-19 19:40:00,30.0,3.0,0.00,ENE,69,0.0,0.0,31,0.00,CLR,,0.00,WeatherDisplay:10.37,2013-11-20 00:40:00,
2013-11-19 19:43:00,29.8,2.8,26.69,ENE,69,0.0,0.0,31,0.00,CLR,,0.00,WeatherDisplay:10.37,2013-11-20 00:43:00,
2013-11-19 19:44:00,29.8,2.8,26.69,ENE,69,0.0,0.0,31,0.00,CLR,,0.00,WeatherDisplay:10.37,2013-11-20 00:44:00,
2013-11-19 19:45:00,29.8,2.8,26.69,ENE,69,0.0,0.0,31,0.00,CLR,,0.00,WeatherDisplay:10.37,2013-11-20 00:45:00,
2013-11-19 19:47:00,29.7,2.7,26.69,ENE,69,0.0,0.0,31,0.00,CLR,,0.00,WeatherDisplay:10.37,2013-11-20 00:47:00,
2013-11-19 19:48:00,29.7,2.7,26.69,ENE,69,0.0,0.0,31,0.00,CLR,,0.00,WeatherDisplay:10.37,2013-11-20 00:48:00,
2013-11-19 19:49:00,29.7,2.7,26.69,ENE,69,0.0,0.0,31,0.00,CLR,,0.00,WeatherDisplay:10.37,2013-11-20 00:49:00,
2013-11-19 19:50:00,29.7,2.7,26.69,ENE,69,0.0,0.0,31,0.00,CLR,,0.00,WeatherDisplay:10.37,2013-11-20 00:50:00,
2013-11-19 19:52:00,29.7,2.7,26.69,ENE,69,0.0,0.0,31,0.00,CLR,,0.00,WeatherDisplay:10.37,2013-11-20 00:52:00,
2013-11-19 19:53:00,29.7,2.7,26.69,ENE,69,0.0,0.0,31,0.00,CLR,,0.00,WeatherDisplay:10.37,2013-11-20 00:53:00,
2013-11-19 19:54:00,29.5,2.5,26.69,ENE,69,0.0,0.0,31,0.00,CLR,,0.00,WeatherDisplay:10.37,2013-11-20 00:54:00,
2013-11-19 19:55:00,29.5,2.5,0.00,ENE,69,0.0,0.0,31,0.00,CLR,,0.00,WeatherDisplay:10.37,2013-11-20 00:55:00,
2013-11-19 19:57:00,29.5,2.5,26.69,ENE,69,0.0,0.0,31,0.00,CLR,,0.00,WeatherDisplay:10.37,2013-11-20 00:57:00,
2013-11-19 19:59:00,29.5,2.5,26.69,ENE,69,0.0,0.0,31,0.00,CLR,,0.00,WeatherDisplay:10.37,2013-11-20 00:59:00,
2013-11-19 20:00:00,29.5,2.5,0.00,ENE,69,0.0,0.0,31,0.00,CLR,,0.00,WeatherDisplay:10.37,2013-11-20 01:00:00,
2013-11-19 20:01:00,29.5,2.5,26.69,ENE,69,0.0,0.0,31,0.00,CLR,,0.00,WeatherDisplay:10.37,2013-11-20 01:01:00,
2013-11-19 20:04:00,29.5,2.5,26.69,ENE,69,0.0,0.0,31,0.00,CLR,,0.00,WeatherDisplay:10.37,2013-11-20 01:04:00,
2013-11-19 20:05:00,29.5,2.5,0.00,ENE,69,0.0,0.0,31,0.00,CLR,,0.00,WeatherDisplay:10.37,2013-11-20 01:05:00,
2013-11-19 20:07:00,29.3,2.4,26.69,ENE,69,0.0,0.0,31,0.00,CLR,,0.00,WeatherDisplay:10.37,2013-11-20 01:07:00,
2013-11-19 20:08:00,29.3,2.4,26.69,ENE,69,0.0,0.0,31,0.00,CLR,,0.00,WeatherDisplay:10.37,2013-11-20 01:08:00,
2013-11-19 20:10:00,29.3,2.4,0.00,ENE,69,0.0,0.0,31,0.00,CLR,,0.00,WeatherDisplay:10.37,2013-11-20 01:10:00,
2013-11-19 20:12:00,29.1,2.2,26.69,ENE,69,0.0,0.0,31,0.00,CLR,,0.00,WeatherDisplay:10.37,2013-11-20 01:12:00,
2013-11-19 20:14:00,29.1,2.2,26.69,ENE,69,0.0,0.0,31,0.00,CLR,,0.00,WeatherDisplay:10.37,2013-11-20 01:14:00,
2013-11-19 20:15:00,29.1,2.2,0.00,ENE,69,0.0,0.0,31,0.00,CLR,,0.00,WeatherDisplay:10.37,2013-11-20 01:15:00,
2013-11-19 20:16:00,29.1,2.2,26.69,ENE,69,0.0,0.0,31,0.00,CLR,,0.00,WeatherDisplay:10.37,2013-11-20 01:16:00,
2013-11-19 20:19:00,29.1,2.2,26.69,ENE,69,0.0,0.0,31,0.00,CLR,,0.00,WeatherDisplay:10.37,2013-11-20 01:19:00,
2013-11-19 20:20:00,29.1,2.2,26.69,ENE,69,0.0,0.0,31,0.00,CLR,,0.00,WeatherDisplay:10.37,2013-11-20 01:20:00,
2013-11-19 20:21:00,29.1,2.2,26.69,ENE,69,0.0,0.0,31,0.00,CLR,,0.00,WeatherDisplay:10.37,2013-11-20 01:21:00,
2013-11-19 20:22:00,28.9,2.0,26.69,ENE,69,0.0,0.0,31,0.00,CLR,,0.00,WeatherDisplay:10.37,2013-11-20 01:22:00,
2013-11-19 20:25:00,28.9,2.0,0.00,ENE,69,0.0,0.0,31,0.00,CLR,,0.00,WeatherDisplay:10.37,2013-11-20 01:25:00,
2013-11-19 20:27:00,28.9,2.0,26.69,ENE,69,0.0,0.0,31,0.00,CLR,,0.00,WeatherDisplay:10.37,2013-11-20 01:27:00,
2013-11-19 20:28:00,28.9,2.0,26.69,ENE,69,0.0,0.0,31,0.00,CLR,,0.00,WeatherDisplay:10.37,2013-11-20 01:28:00,
2013-11-19 20:30:00,28.9,2.0,0.00,ENE,69,0.0,0.0,31,0.00,CLR,,0.00,WeatherDisplay:10.37,2013-11-20 01:30:00,
2013-11-19 20:31:00,28.8,1.9,26.69,ENE,69,0.0,0.0,31,0.00,CLR,,0.00,WeatherDisplay:10.37,2013-11-20 01:31:00,
2013-11-19 20:33:00,28.8,1.9,26.69,ENE,69,0.0,0.0,31,0.00,CLR,,0.00,WeatherDisplay:10.37,2013-11-20 01:33:00,
2013-11-19 20:34:00,28.8,1.9,26.69,ENE,69,0.0,0.0,31,0.00,CLR,,0.00,WeatherDisplay:10.37,2013-11-20 01:34:00,
2013-11-19 20:35:00,28.8,1.9,26.69,ENE,69,0.0,0.0,31,0.00,CLR,,0.00,WeatherDisplay:10.37,2013-11-20 01:35:00,
2013-11-19 20:37:00,28.8,1.9,26.69,ENE,69,0.0,0.0,31,0.00,CLR,,0.00,WeatherDisplay:10.37,2013-11-20 01:37:00,
2013-11-19 20:38:00,28.6,1.7,26.69,ENE,69,0.0,0.0,31,0.00,CLR,,0.00,WeatherDisplay:10.37,2013-11-20 01:38:00,
2013-11-19 20:39:00,28.6,1.7,26.69,ENE,69,0.0,0.0,31,0.00,CLR,,0.00,WeatherDisplay:10.37,2013-11-20 01:39:00,
2013-11-19 20:40:00,28.6,1.7,26.69,ENE,69,0.0,0.0,31,0.00,CLR,,0.00,WeatherDisplay:10.37,2013-11-20 01:40:00,
2013-11-19 20:41:00,28.6,1.7,26.69,ENE,69,0.0,0.0,31,0.00,CLR,,0.00,WeatherDisplay:10.37,2013-11-20 01:41:00,
2013-11-19 20:43:00,28.6,1.7,26.69,ENE,69,0.0,0.0,31,0.00,CLR,,0.00,WeatherDisplay:10.37,2013-11-20 01:43:00,
2013-11-19 20:44:00,28.6,1.7,26.69,ENE,69,0.0,0.0,31,0.00,CLR,,0.00,WeatherDisplay:10.37,2013-11-20 01:44:00,
2013-11-19 20:47:00,28.6,1.7,26.69,ENE,69,0.0,0.0,31,0.00,CLR,,0.00,WeatherDisplay:10.37,2013-11-20 01:47:00,
2013-11-19 20:48:00,28.6,1.7,26.69,ENE,69,0.0,0.0,31,0.00,CLR,,0.00,WeatherDisplay:10.37,2013-11-20 01:48:00,
2013-11-19 20:50:00,28.6,1.7,0.00,ENE,69,0.0,0.0,31,0.00,CLR,,0.00,WeatherDisplay:10.37,2013-11-20 01:50:00,
2013-11-19 20:51:00,28.6,1.7,26.69,ENE,69,0.0,0.0,31,0.00,CLR,,0.00,WeatherDisplay:10.37,2013-11-20 01:51:00,
2013-11-19 20:52:00,28.6,1.7,26.69,ENE,69,0.0,0.0,31,0.00,CLR,,0.00,WeatherDisplay:10.37,2013-11-20 01:52:00,
2013-11-19 20:53:00,28.4,2.2,26.69,ENE,69,0.0,0.0,32,0.00,CLR,,0.00,WeatherDisplay:10.37,2013-11-20 01:53:00,
2013-11-19 20:55:00,28.4,2.2,26.69,ENE,69,0.0,0.0,32,0.00,CLR,,0.00,WeatherDisplay:10.37,2013-11-20 01:55:00,
2013-11-19 20:57:00,28.4,2.2,26.69,ENE,69,0.0,0.0,32,0.00,CLR,,0.00,WeatherDisplay:10.37,2013-11-20 01:57:00,
2013-11-19 20:58:00,28.4,2.2,26.69,ENE,69,0.0,0.0,32,0.00,CLR,,0.00,WeatherDisplay:10.37,2013-11-20 01:58:00,
2013-11-19 20:59:00,28.4,2.2,26.69,ENE,69,0.0,0.0,32,0.00,CLR,,0.00,WeatherDisplay:10.37,2013-11-20 01:59:00,
2013-11-19 21:00:00,28.4,2.2,26.69,ENE,69,0.0,0.0,32,0.00,CLR,,0.00,WeatherDisplay:10.37,2013-11-20 02:00:00,
2013-11-19 21:03:00,28.2,2.1,26.69,ENE,69,0.0,0.0,32,0.00,CLR,,0.00,WeatherDisplay:10.37,2013-11-20 02:03:00,
2013-11-19 21:04:00,28.2,2.1,26.69,ENE,69,0.0,0.0,32,0.00,CLR,,0.00,WeatherDisplay:10.37,2013-11-20 02:04:00,
2013-11-19 21:05:00,28.2,2.1,26.69,ENE,69,0.0,0.0,32,0.00,CLR,,0.00,WeatherDisplay:10.37,2013-11-20 02:05:00,
2013-11-19 21:08:00,28.2,2.1,26.69,ENE,69,0.0,0.0,32,0.00,CLR,,0.00,WeatherDisplay:10.37,2013-11-20 02:08:00,
2013-11-19 21:09:00,28.4,2.2,26.69,ENE,69,0.0,0.0,32,0.00,CLR,,0.00,WeatherDisplay:10.37,2013-11-20 02:09:00,
2013-11-19 21:10:00,28.4,2.2,0.00,ENE,69,0.0,0.0,32,0.00,CLR,,0.00,WeatherDisplay:10.37,2013-11-20 02:10:00,
2013-11-19 21:11:00,28.4,2.9,26.69,ENE,69,0.0,0.0,33,0.00,CLR,,0.00,WeatherDisplay:10.37,2013-11-20 02:11:00,
2013-11-19 21:13:00,28.2,2.7,26.69,ENE,69,0.0,0.0,33,0.00,CLR,,0.00,WeatherDisplay:10.37,2013-11-20 02:13:00,
2013-11-19 21:17:00,28.2,2.1,26.69,ENE,69,0.0,0.0,32,0.00,CLR,,0.00,WeatherDisplay:10.37,2013-11-20 02:17:00,
2013-11-19 21:18:00,28.2,2.1,26.69,ENE,69,0.0,0.0,32,0.00,CLR,,0.00,WeatherDisplay:10.37,2013-11-20 02:18:00,
2013-11-19 21:19:00,28.2,2.1,26.69,ENE,69,0.0,0.0,32,0.00,CLR,,0.00,WeatherDisplay:10.37,2013-11-20 02:19:00,
2013-11-19 21:20:00,28.2,2.1,0.00,ENE,69,0.0,0.0,32,0.00,CLR,,0.00,WeatherDisplay:10.37,2013-11-20 02:20:00,
2013-11-19 21:22:00,28.0,1.9,26.69,ENE,69,0.0,0.0,32,0.00,CLR,,0.00,WeatherDisplay:10.37,2013-11-20 02:22:00,
2013-11-19 21:23:00,28.0,1.9,26.69,ENE,69,0.0,0.0,32,0.00,CLR,,0.00,WeatherDisplay:10.37,2013-11-20 02:23:00,
2013-11-19 21:25:00,28.0,1.9,0.00,ENE,69,0.0,0.0,32,0.00,CLR,,0.00,WeatherDisplay:10.37,2013-11-20 02:25:00,
2013-11-19 21:26:00,28.0,1.9,26.69,ENE,69,0.0,0.0,32,0.00,CLR,,0.00,WeatherDisplay:10.37,2013-11-20 02:26:00,
2013-11-19 21:27:00,28.0,1.9,26.69,ENE,69,0.0,0.0,32,0.00,CLR,,0.00,WeatherDisplay:10.37,2013-11-20 02:27:00,
2013-11-19 21:28:00,28.0,2.6,26.69,ENE,69,0.0,0.0,33,0.00,CLR,,0.00,WeatherDisplay:10.37,2013-11-20 02:28:00,
2013-11-19 21:32:00,28.0,2.6,26.69,ENE,69,0.0,0.0,33,0.00,CLR,,0.00,WeatherDisplay:10.37,2013-11-20 02:32:00,
2013-11-19 21:33:00,28.0,2.6,26.69,ENE,69,0.0,0.0,33,0.00,CLR,,0.00,WeatherDisplay:10.37,2013-11-20 02:33:00,
2013-11-19 21:36:00,28.0,2.6,26.69,ENE,69,0.0,0.0,33,0.00,CLR,,0.00,WeatherDisplay:10.37,2013-11-20 02:36:00,
2013-11-19 21:38:00,28.0,2.6,26.69,ENE,69,0.0,0.0,33,0.00,CLR,,0.00,WeatherDisplay:10.37,2013-11-20 02:38:00,
2013-11-19 21:39:00,28.0,2.6,26.69,ENE,69,0.0,0.0,33,0.00,CLR,,0.00,WeatherDisplay:10.37,2013-11-20 02:39:00,
2013-11-19 21:40:00,28.0,2.6,0.00,ENE,69,0.0,0.0,33,0.00,CLR,,0.00,WeatherDisplay:10.37,2013-11-20 02:40:00,
2013-11-19 21:41:00,28.0,2.6,26.69,ENE,69,0.0,0.0,33,0.00,CLR,,0.00,WeatherDisplay:10.37,2013-11-20 02:41:00,
2013-11-19 21:45:00,28.0,2.6,0.00,ENE,69,0.0,0.0,33,0.00,CLR,,0.00,WeatherDisplay:10.37,2013-11-20 02:45:00,
2013-11-19 21:46:00,28.0,2.6,26.69,ENE,69,0.0,0.0,33,0.00,CLR,,0.00,WeatherDisplay:10.37,2013-11-20 02:46:00,
2013-11-19 21:50:00,28.0,2.5,0.00,ENE,69,0.0,0.0,33,0.00,CLR,,0.00,WeatherDisplay:10.37,2013-11-20 02:50:00,
2013-11-19 21:51:00,27.9,2.4,26.69,ENE,69,0.0,0.0,33,0.00,CLR,,0.00,WeatherDisplay:10.37,2013-11-20 02:51:00,
2013-11-19 21:52:00,27.9,2.4,26.69,ENE,69,0.0,0.0,33,0.00,CLR,,0.00,WeatherDisplay:10.37,2013-11-20 02:52:00,
2013-11-19 21:53:00,27.9,2.4,26.69,ENE,69,0.0,0.0,33,0.00,CLR,,0.00,WeatherDisplay:10.37,2013-11-20 02:53:00,
2013-11-19 21:54:00,27.9,2.4,26.69,ENE,69,0.0,0.0,33,0.00,CLR,,0.00,WeatherDisplay:10.37,2013-11-20 02:54:00,
2013-11-19 21:57:00,27.9,2.4,26.69,ENE,69,0.0,0.0,33,0.00,CLR,,0.00,WeatherDisplay:10.37,2013-11-20 02:57:00,
2013-11-19 21:58:00,27.9,2.4,26.69,ENE,69,0.0,0.0,33,0.00,CLR,,0.00,WeatherDisplay:10.37,2013-11-20 02:58:00,
2013-11-19 21:59:00,27.9,2.4,26.69,ENE,69,0.0,0.0,33,0.00,CLR,,0.00,WeatherDisplay:10.37,2013-11-20 02:59:00,
2013-11-19 22:02:00,27.9,2.4,26.69,ENE,69,0.0,0.0,33,0.00,CLR,,0.00,WeatherDisplay:10.37,2013-11-20 03:02:00,
2013-11-19 22:03:00,27.9,2.4,26.69,ENE,69,0.0,0.0,33,0.00,CLR,,0.00,WeatherDisplay:10.37,2013-11-20 03:03:00,
2013-11-19 22:04:00,27.9,2.4,26.69,ENE,69,0.0,0.0,33,0.00,CLR,,0.00,WeatherDisplay:10.37,2013-11-20 03:04:00,
2013-11-19 22:05:00,27.9,2.4,0.00,ENE,69,0.0,0.0,33,0.00,CLR,,0.00,WeatherDisplay:10.37,2013-11-20 03:05:00,
2013-11-19 22:09:00,27.7,2.3,26.69,ENE,69,0.0,0.0,33,0.00,CLR,,0.00,WeatherDisplay:10.37,2013-11-20 03:09:00,
2013-11-19 22:10:00,27.7,2.3,26.69,ENE,69,0.0,0.0,33,0.00,CLR,,0.00,WeatherDisplay:10.37,2013-11-20 03:10:00,
2013-11-19 22:11:00,27.7,2.3,26.69,ENE,69,0.0,0.0,33,0.00,CLR,,0.00,WeatherDisplay:10.37,2013-11-20 03:11:00,
2013-11-19 22:12:00,27.7,2.3,26.69,ENE,69,0.0,0.0,33,0.00,CLR,,0.00,WeatherDisplay:10.37,2013-11-20 03:12:00,
2013-11-19 22:15:00,27.7,2.3,26.69,ENE,69,0.0,0.0,33,0.00,CLR,,0.00,WeatherDisplay:10.37,2013-11-20 03:15:00,
2013-11-19 22:16:00,27.7,2.3,26.69,ENE,69,0.0,0.0,33,0.00,CLR,,0.00,WeatherDisplay:10.37,2013-11-20 03:16:00,
2013-11-19 22:17:00,27.7,2.3,26.69,ENE,69,0.0,0.0,33,0.00,CLR,,0.00,WeatherDisplay:10.37,2013-11-20 03:17:00,
2013-11-19 22:18:00,27.9,3.1,26.69,ENE,69,0.0,0.0,34,0.00,CLR,,0.00,WeatherDisplay:10.37,2013-11-20 03:18:00,
2013-11-19 22:21:00,27.9,3.1,26.69,ENE,69,0.0,0.0,34,0.00,CLR,,0.00,WeatherDisplay:10.37,2013-11-20 03:21:00,
2013-11-19 22:23:00,28.0,3.2,26.69,ENE,69,0.0,0.0,34,0.00,CLR,,0.00,WeatherDisplay:10.37,2013-11-20 03:23:00,
2013-11-19 22:24:00,28.0,3.2,26.69,ENE,69,0.0,0.0,34,0.00,CLR,,0.00,WeatherDisplay:10.37,2013-11-20 03:24:00,
2013-11-19 22:25:00,28.2,3.4,26.69,ENE,69,0.0,0.0,34,0.00,CLR,,0.00,WeatherDisplay:10.37,2013-11-20 03:25:00,
2013-11-19 22:26:00,28.2,3.4,26.69,ENE,69,0.0,0.0,34,0.00,CLR,,0.00,WeatherDisplay:10.37,2013-11-20 03:26:00,
2013-11-19 22:27:00,28.4,3.6,26.69,ENE,69,0.0,0.0,34,0.00,CLR,,0.00,WeatherDisplay:10.37,2013-11-20 03:27:00,
2013-11-19 22:29:00,28.6,3.1,26.69,ENE,69,0.0,0.0,33,0.00,CLR,,0.00,WeatherDisplay:10.37,2013-11-20 03:29:00,
2013-11-19 22:30:00,28.6,3.1,26.69,ENE,69,0.0,0.0,33,0.00,CLR,,0.00,WeatherDisplay:10.37,2013-11-20 03:30:00,
2013-11-19 22:31:00,28.8,3.2,26.69,ENE,69,0.0,0.0,33,0.00,CLR,,0.00,WeatherDisplay:10.37,2013-11-20 03:31:00,
2013-11-19 22:32:00,28.8,3.2,26.69,ENE,69,0.0,0.0,33,0.00,CLR,,0.00,WeatherDisplay:10.37,2013-11-20 03:32:00,
2013-11-19 22:33:00,28.8,3.2,26.69,ENE,69,0.0,0.0,33,0.00,CLR,,0.00,WeatherDisplay:10.37,2013-11-20 03:33:00,
2013-11-19 22:34:00,28.8,3.2,26.69,ENE,69,0.0,0.0,33,0.00,CLR,,0.00,WeatherDisplay:10.37,2013-11-20 03:34:00,
2013-11-19 22:35:00,28.8,3.2,26.69,ENE,69,0.0,0.0,33,0.00,CLR,,0.00,WeatherDisplay:10.37,2013-11-20 03:35:00,
2013-11-19 22:36:00,28.8,3.2,26.69,ENE,69,0.0,0.0,33,0.00,CLR,,0.00,WeatherDisplay:10.37,2013-11-20 03:36:00,
2013-11-19 22:37:00,28.9,3.4,26.69,ENE,69,0.0,0.0,33,0.00,CLR,,0.00,WeatherDisplay:10.37,2013-11-20 03:37:00,
2013-11-19 22:38:00,29.1,3.5,26.69,ENE,69,0.0,0.0,33,0.00,CLR,,0.00,WeatherDisplay:10.37,2013-11-20 03:38:00,
2013-11-19 22:41:00,29.5,3.2,26.69,SE,144,0.0,0.0,32,0.00,CLR,,0.00,WeatherDisplay:10.37,2013-11-20 03:41:00,
2013-11-19 22:42:00,29.7,3.4,26.69,SE,144,0.0,0.0,32,0.00,CLR,,0.00,WeatherDisplay:10.37,2013-11-20 03:42:00,
2013-11-19 22:43:00,29.8,3.5,26.69,SE,144,0.0,0.0,32,0.00,CLR,,0.00,WeatherDisplay:10.37,2013-11-20 03:43:00,
2013-11-19 22:45:00,30.2,3.8,26.69,SE,144,0.0,0.0,32,0.00,CLR,,0.00,WeatherDisplay:10.37,2013-11-20 03:45:00,
2013-11-19 22:47:00,30.4,3.3,26.69,SE,144,0.0,0.0,31,0.00,CLR,,0.00,WeatherDisplay:10.37,2013-11-20 03:47:00,
2013-11-19 22:48:00,30.6,3.5,26.69,SE,144,0.0,0.0,31,0.00,CLR,,0.00,WeatherDisplay:10.37,2013-11-20 03:48:00,
2013-11-19 22:49:00,30.7,3.6,26.69,SE,144,0.0,0.0,31,0.00,CLR,,0.00,WeatherDisplay:10.37,2013-11-20 03:49:00,
2013-11-19 22:50:00,30.7,3.6,0.00,SE,144,0.0,0.0,31,0.00,CLR,,0.00,WeatherDisplay:10.37,2013-11-20 03:50:00,
2013-11-19 22:51:00,30.9,3.8,26.69,SE,144,0.0,0.0,31,0.00,CLR,,0.00,WeatherDisplay:10.37,2013-11-20 03:51:00,
2013-11-19 22:52:00,31.1,3.9,26.69,SE,144,0.0,0.0,31,0.00,CLR,,0.00,WeatherDisplay:10.37,2013-11-20 03:52:00,
2013-11-19 22:53:00,31.1,3.9,26.69,SE,144,0.0,0.0,31,0.00,CLR,,0.00,WeatherDisplay:10.37,2013-11-20 03:53:00,
2013-11-19 22:55:00,31.1,3.9,0.00,SE,144,0.0,0.0,31,0.00,CLR,,0.00,WeatherDisplay:10.37,2013-11-20 03:55:00,
2013-11-19 22:58:00,31.3,4.1,26.69,SE,144,0.0,0.0,31,0.00,CLR,,0.00,WeatherDisplay:10.37,2013-11-20 03:58:00,
2013-11-19 22:59:00,31.3,4.1,26.69,SE,144,0.0,0.0,31,0.00,CLR,,0.00,WeatherDisplay:10.37,2013-11-20 03:59:00,
2013-11-19 23:00:00,31.3,4.1,0.00,SE,144,0.0,0.0,31,0.00,CLR,,0.00,WeatherDisplay:10.37,2013-11-20 04:00:00,
2013-11-19 23:01:00,31.5,4.3,26.69,SE,144,0.0,0.0,31,0.00,CLR,,0.00,WeatherDisplay:10.37,2013-11-20 04:01:00,
2013-11-19 23:05:00,31.6,4.4,26.69,SE,144,0.0,0.0,31,0.00,CLR,,0.00,WeatherDisplay:10.37,2013-11-20 04:05:00,
2013-11-19 23:06:00,31.6,4.4,26.69,SE,144,0.0,0.0,31,0.00,CLR,,0.00,WeatherDisplay:10.37,2013-11-20 04:06:00,
2013-11-19 23:07:00,31.6,4.4,26.69,SE,144,0.0,0.0,31,0.00,CLR,,0.00,WeatherDisplay:10.37,2013-11-20 04:07:00,
2013-11-19 23:12:00,31.6,4.4,26.69,SE,144,0.0,0.0,31,0.00,CLR,,0.00,WeatherDisplay:10.37,2013-11-20 04:12:00,
2013-11-19 23:13:00,31.6,4.4,26.69,SE,144,0.0,0.0,31,0.00,CLR,,0.00,WeatherDisplay:10.37,2013-11-20 04:13:00,
2013-11-19 23:15:00,31.6,4.4,26.69,ESE,110,0.0,0.0,31,0.00,CLR,,0.00,WeatherDisplay:10.37,2013-11-20 04:15:00,
2013-11-19 23:18:00,31.6,4.4,26.69,ESE,121,0.0,0.0,31,0.00,CLR,,0.00,WeatherDisplay:10.37,2013-11-20 04:18:00,
2013-11-19 23:20:00,31.5,4.3,26.69,ESE,121,0.0,0.0,31,0.00,CLR,,0.00,WeatherDisplay:10.37,2013-11-20 04:20:00,
2013-11-19 23:21:00,31.5,4.3,26.69,ESE,121,0.0,0.0,31,0.00,CLR,,0.00,WeatherDisplay:10.37,2013-11-20 04:21:00,
2013-11-19 23:23:00,31.5,4.3,26.69,ESE,120,0.0,0.0,31,0.00,CLR,,0.00,WeatherDisplay:10.37,2013-11-20 04:23:00,
2013-11-19 23:27:00,31.6,4.4,26.69,SE,146,0.0,0.0,31,0.00,CLR,,0.00,WeatherDisplay:10.37,2013-11-20 04:27:00,
2013-11-19 23:28:00,31.6,4.4,26.69,SSE,155,0.0,0.0,31,0.00,CLR,,0.00,WeatherDisplay:10.37,2013-11-20 04:28:00,
2013-11-19 23:29:00,31.6,4.4,26.69,SSE,155,0.0,0.0,31,0.00,CLR,,0.00,WeatherDisplay:10.37,2013-11-20 04:29:00,
2013-11-19 23:30:00,31.6,4.4,0.00,SE,144,0.0,0.0,31,0.00,CLR,,0.00,WeatherDisplay:10.37,2013-11-20 04:30:00,
2013-11-19 23:34:00,31.5,4.3,26.69,South,178,0.0,0.0,31,0.00,CLR,,0.00,WeatherDisplay:10.37,2013-11-20 04:34:00,
2013-11-19 23:35:00,31.5,4.3,26.69,SW,232,0.0,0.0,31,0.00,CLR,,0.00,WeatherDisplay:10.37,2013-11-20 04:35:00,
2013-11-19 23:36:00,31.5,4.3,26.69,SW,232,0.0,0.0,31,0.00,CLR,,0.00,WeatherDisplay:10.37,2013-11-20 04:36:00,
2013-11-19 23:40:00,31.5,4.3,0.00,SSW,201,0.0,0.0,31,0.00,CLR,,0.00,WeatherDisplay:10.37,2013-11-20 04:40:00,
2013-11-19 23:42:00,31.5,4.3,26.69,SE,140,0.0,0.0,31,0.00,CLR,,0.00,WeatherDisplay:10.37,2013-11-20 04:42:00,
2013-11-19 23:43:00,31.5,4.3,26.69,SE,140,0.0,0.0,31,0.00,CLR,,0.00,WeatherDisplay:10.37,2013-11-20 04:43:00,
2013-11-19 23:44:00,31.5,4.3,26.69,SE,140,0.0,0.0,31,0.00,CLR,,0.00,WeatherDisplay:10.37,2013-11-20 04:44:00,
2013-11-19 23:45:00,31.5,4.3,0.00,South,178,0.0,0.0,31,0.00,CLR,,0.00,WeatherDisplay:10.37,2013-11-20 04:45:00,
2013-11-19 23:47:00,31.5,4.3,26.69,SSW,194,0.0,0.0,31,0.00,CLR,,0.00,WeatherDisplay:10.37,2013-11-20 04:47:00,
2013-11-19 23:50:00,31.4,4.2,0.00,SSE,147,0.0,0.0,31,0.00,CLR,,0.00,WeatherDisplay:10.37,2013-11-20 04:50:00,
2013-11-19 23:51:00,31.3,4.1,26.69,ESE,103,0.0,0.0,31,0.00,CLR,,0.00,WeatherDisplay:10.37,2013-11-20 04:51:00,
2013-11-19 23:52:00,31.3,4.1,26.69,ESE,104,0.0,0.0,31,0.00,CLR,,0.00,WeatherDisplay:10.37,2013-11-20 04:52:00,
2013-11-19 23:53:00,31.3,4.1,26.69,ESE,104,0.0,0.0,31,0.00,CLR,,0.00,WeatherDisplay:10.37,2013-11-20 04:53:00,
2013-11-19 23:55:00,31.3,4.1,26.69,ESE,106,0.0,0.0,31,0.00,CLR,,0.00,WeatherDisplay:10.37,2013-11-20 04:55:00,
2013-11-19 23:56:00,31.3,4.1,26.69,ESE,120,0.0,0.0,31,0.00,CLR,,0.00,WeatherDisplay:10.37,2013-11-20 04:56:00,
2013-11-19 23:57:00,31.3,4.1,26.69,ESE,120,0.0,0.0,31,0.00,CLR,,0.00,WeatherDisplay:10.37,2013-11-20 04:57:00,
2013-11-19 23:58:00,31.3,4.1,26.69,ESE,121,0.0,0.0,31,0.00,CLR,,0.00,WeatherDisplay:10.37,2013-11-20 04:58:00,
2013-11-19 23:59:00,31.3,4.1,26.69,ESE,121,0.0,0.0,31,0.00,CLR,,0.00,WeatherDisplay:10.37,2013-11-20 04:59:00,